Wetterdaten: Montag, 23.12.2013
Datum Zeit Temp. Aussen +5cm Feuchte Auss Luftdruck Regen Sonnenschein Regendauer UV Solar Windben
23.12.2013 00:00 7,0 C 5,6 C 91 % 1014,2 hPa 0,0 l/m 0 min 0 min 0,0 UV-I 0 W/m 18,0 km/h (3 Bft)
23.12.2013 00:02 7,1 C 5,6 C 91 % 1014,3 hPa 0,0 l/m 0 min 0 min 0,0 UV-I 0 W/m 10,3 km/h (2 Bft)
23.12.2013 00:04 7,1 C 5,6 C 91 % 1014,3 hPa 0,0 l/m 0 min 0 min 0,0 UV-I 0 W/m 12,9 km/h (3 Bft)
23.12.2013 00:06 7,1 C 5,6 C 91 % 1014,3 hPa 0,0 l/m 0 min 0 min 0,0 UV-I 0 W/m 12,9 km/h (3 Bft)
23.12.2013 00:08 7,1 C 5,0 C 91 % 1014,2 hPa 0,0 l/m 0 min 0 min 0,0 UV-I 0 W/m 18,0 km/h (3 Bft)
23.12.2013 00:10 7,1 C 5,6 C 90 % 1014,2 hPa 0,0 l/m 0 min 0 min 0,0 UV-I 0 W/m 15,4 km/h (3 Bft)
23.12.2013 00:12 7,1 C 5,6 C 90 % 1014,3 hPa 0,0 l/m 0 min 0 min 0,0 UV-I 0 W/m 12,9 km/h (3 Bft)
23.12.2013 00:14 7,1 C 5,0 C 90 % 1014,3 hPa 0,0 l/m 0 min 0 min 0,0 UV-I 0 W/m 15,4 km/h (3 Bft)
23.12.2013 00:16 7,1 C 5,0 C 90 % 1014,3 hPa 0,0 l/m 0 min 0 min 0,0 UV-I 0 W/m 5,1 km/h (1 Bft)
23.12.2013 00:18 7,1 C 5,0 C 90 % 1014,3 hPa 0,0 l/m 0 min 0 min 0,0 UV-I 0 W/m 10,3 km/h (2 Bft)
23.12.2013 00:20 7,1 C 5,0 C 90 % 1014,4 hPa 0,0 l/m 0 min 0 min 0,0 UV-I 0 W/m 10,3 km/h (2 Bft)
23.12.2013 00:22 7,0 C 5,0 C 90 % 1014,4 hPa 0,0 l/m 0 min 0 min 0,0 UV-I 0 W/m 20,6 km/h (4 Bft)
23.12.2013 00:24 7,0 C 5,0 C 90 % 1014,5 hPa 0,0 l/m 0 min 0 min 0,0 UV-I 0 W/m 10,3 km/h (2 Bft)
23.12.2013 00:26 7,0 C 5,0 C 90 % 1014,5 hPa 0,0 l/m 0 min 0 min 0,0 UV-I 0 W/m 10,3 km/h (2 Bft)
23.12.2013 00:28 7,0 C 5,0 C 90 % 1014,4 hPa 0,0 l/m 0 min 0 min 0,0 UV-I 0 W/m 10,3 km/h (2 Bft)
23.12.2013 00:30 6,9 C 5,0 C 90 % 1014,4 hPa 0,0 l/m 0 min 0 min 0,0 UV-I 0 W/m 12,9 km/h (3 Bft)
23.12.2013 00:32 6,9 C 5,0 C 90 % 1014,4 hPa 0,0 l/m 0 min 0 min 0,0 UV-I 0 W/m 12,9 km/h (3 Bft)
23.12.2013 00:34 6,9 C 5,0 C 90 % 1014,4 hPa 0,0 l/m 0 min 0 min 0,0 UV-I 0 W/m 10,3 km/h (2 Bft)
23.12.2013 00:36 6,9 C 5,0 C 90 % 1014,5 hPa 0,0 l/m 0 min 0 min 0,0 UV-I 0 W/m 15,4 km/h (3 Bft)
23.12.2013 00:38 6,9 C 5,0 C 90 % 1014,4 hPa 0,0 l/m 0 min 0 min 0,0 UV-I 0 W/m 12,9 km/h (3 Bft)
23.12.2013 00:40 6,9 C 5,0 C 90 % 1014,5 hPa 0,0 l/m 0 min 0 min 0,0 UV-I 0 W/m 15,4 km/h (3 Bft)
23.12.2013 00:42 6,9 C 5,0 C 90 % 1014,6 hPa 0,0 l/m 0 min 0 min 0,0 UV-I 0 W/m 15,4 km/h (3 Bft)
23.12.2013 00:44 6,9 C 5,0 C 90 % 1014,6 hPa 0,0 l/m 0 min 0 min 0,0 UV-I 0 W/m 15,4 km/h (3 Bft)
23.12.2013 00:46 6,9 C 5,0 C 90 % 1014,7 hPa 0,0 l/m 0 min 0 min 0,0 UV-I 0 W/m 7,7 km/h (2 Bft)
23.12.2013 00:48 6,9 C 5,0 C 90 % 1014,7 hPa 0,0 l/m 0 min 0 min 0,0 UV-I 0 W/m 12,9 km/h (3 Bft)
23.12.2013 00:50 6,9 C 5,0 C 90 % 1014,8 hPa 0,0 l/m 0 min 0 min 0,0 UV-I 0 W/m 12,9 km/h (3 Bft)
23.12.2013 00:52 6,9 C 5,0 C 90 % 1014,7 hPa 0,0 l/m 0 min 0 min 0,0 UV-I 0 W/m 10,3 km/h (2 Bft)
23.12.2013 00:54 6,9 C 5,0 C 90 % 1014,7 hPa 0,0 l/m 0 min 0 min 0,0 UV-I 0 W/m 12,9 km/h (3 Bft)
23.12.2013 00:56 6,9 C 5,0 C 90 % 1014,6 hPa 0,0 l/m 0 min 0 min 0,0 UV-I 0 W/m 5,1 km/h (1 Bft)
23.12.2013 00:58 6,9 C 5,0 C 90 % 1014,7 hPa 0,0 l/m 0 min 0 min 0,0 UV-I 0 W/m 10,3 km/h (2 Bft)
23.12.2013 01:00 6,9 C 5,0 C 90 % 1014,8 hPa 0,0 l/m 0 min 0 min 0,0 UV-I 0 W/m 7,7 km/h (2 Bft)
23.12.2013 01:02 6,9 C 5,0 C 90 % 1014,8 hPa 0,0 l/m 0 min 0 min 0,0 UV-I 0 W/m 7,7 km/h (2 Bft)
23.12.2013 01:04 6,9 C 5,0 C 90 % 1014,9 hPa 0,0 l/m 0 min 0 min 0,0 UV-I 0 W/m 18,0 km/h (3 Bft)
23.12.2013 01:06 6,9 C 5,0 C 90 % 1014,9 hPa 0,0 l/m 0 min 0 min 0,0 UV-I 0 W/m 7,7 km/h (2 Bft)
23.12.2013 01:08 6,9 C 5,0 C 90 % 1014,9 hPa 0,0 l/m 0 min 0 min 0,0 UV-I 0 W/m 15,4 km/h (3 Bft)
23.12.2013 01:10 6,9 C 5,0 C 90 % 1014,9 hPa 0,0 l/m 0 min 0 min 0,0 UV-I 0 W/m 7,7 km/h (2 Bft)
23.12.2013 01:12 6,8 C 5,0 C 90 % 1014,9 hPa 0,0 l/m 0 min 0 min 0,0 UV-I 0 W/m 12,9 km/h (3 Bft)
23.12.2013 01:14 6,8 C 5,0 C 90 % 1015,0 hPa 0,0 l/m 0 min 0 min 0,0 UV-I 0 W/m 7,7 km/h (2 Bft)
23.12.2013 01:16 6,8 C 5,0 C 90 % 1015,0 hPa 0,0 l/m 0 min 0 min 0,0 UV-I 0 W/m 23,2 km/h (4 Bft)
23.12.2013 01:18 6,8 C 5,0 C 90 % 1015,0 hPa 0,0 l/m 0 min 0 min 0,0 UV-I 0 W/m 5,1 km/h (1 Bft)
23.12.2013 01:20 6,8 C 5,0 C 90 % 1015,0 hPa 0,0 l/m 0 min 0 min 0,0 UV-I 0 W/m 7,7 km/h (2 Bft)
23.12.2013 01:22 6,8 C 5,0 C 90 % 1015,0 hPa 0,0 l/m 0 min 0 min 0,0 UV-I 0 W/m 12,9 km/h (3 Bft)
23.12.2013 01:24 6,8 C 5,0 C 90 % 1015,0 hPa 0,0 l/m 0 min 0 min 0,0 UV-I 0 W/m 18,0 km/h (3 Bft)
23.12.2013 01:26 6,8 C 5,0 C 90 % 1015,1 hPa 0,0 l/m 0 min 0 min 0,0 UV-I 0 W/m 10,3 km/h (2 Bft)
23.12.2013 01:28 6,8 C 5,0 C 90 % 1015,1 hPa 0,0 l/m 0 min 0 min 0,0 UV-I 0 W/m 10,3 km/h (2 Bft)
23.12.2013 01:30 6,8 C 5,6 C 90 % 1015,1 hPa 0,0 l/m 0 min 0 min 0,0 UV-I 0 W/m 12,9 km/h (3 Bft)
23.12.2013 01:32 6,8 C 5,0 C 90 % 1015,1 hPa 0,0 l/m 0 min 0 min 0,0 UV-I 0 W/m 7,7 km/h (2 Bft)
23.12.2013 01:34 6,8 C 5,6 C 90 % 1015,1 hPa 0,0 l/m 0 min 0 min 0,0 UV-I 0 W/m 23,2 km/h (4 Bft)
23.12.2013 01:36 6,8 C 5,6 C 90 % 1015,1 hPa 0,0 l/m 0 min 0 min 0,0 UV-I 0 W/m 20,6 km/h (4 Bft)
23.12.2013 01:38 6,9 C 5,0 C 90 % 1015,2 hPa 0,0 l/m 0 min 0 min 0,0 UV-I 0 W/m 7,7 km/h (2 Bft)
23.12.2013 01:40 6,9 C 5,0 C 90 % 1015,3 hPa 0,0 l/m 0 min 0 min 0,0 UV-I 0 W/m 10,3 km/h (2 Bft)
23.12.2013 01:42 6,9 C 5,0 C 90 % 1015,2 hPa 0,0 l/m 0 min 0 min 0,0 UV-I 0 W/m 18,0 km/h (3 Bft)
23.12.2013 01:44 6,9 C 5,0 C 90 % 1015,3 hPa 0,0 l/m 0 min 0 min 0,0 UV-I 0 W/m 15,4 km/h (3 Bft)
23.12.2013 01:46 6,9 C 5,0 C 90 % 1015,3 hPa 0,0 l/m 0 min 0 min 0,0 UV-I 0 W/m 10,3 km/h (2 Bft)
23.12.2013 01:48 6,9 C 5,0 C 90 % 1015,3 hPa 0,0 l/m 0 min 0 min 0,0 UV-I 0 W/m 18,0 km/h (3 Bft)
23.12.2013 01:50 6,9 C 5,0 C 90 % 1015,4 hPa 0,0 l/m 0 min 0 min 0,0 UV-I 0 W/m 15,4 km/h (3 Bft)
23.12.2013 01:52 6,9 C 5,0 C 90 % 1015,3 hPa 0,0 l/m 0 min 0 min 0,0 UV-I 0 W/m 18,0 km/h (3 Bft)
23.12.2013 01:54 6,9 C 5,0 C 90 % 1015,4 hPa 0,0 l/m 0 min 0 min 0,0 UV-I 0 W/m 10,3 km/h (2 Bft)
23.12.2013 01:56 6,9 C 5,0 C 90 % 1015,4 hPa 0,0 l/m 0 min 0 min 0,0 UV-I 0 W/m 18,0 km/h (3 Bft)
23.12.2013 01:58 6,9 C 5,6 C 90 % 1015,3 hPa 0,0 l/m 0 min 0 min 0,0 UV-I 0 W/m 18,0 km/h (3 Bft)
23.12.2013 02:00 6,9 C 5,6 C 90 % 1015,3 hPa 0,0 l/m 0 min 0 min 0,0 UV-I 0 W/m 10,3 km/h (2 Bft)
23.12.2013 02:02 6,9 C 5,6 C 90 % 1015,4 hPa 0,0 l/m 0 min 0 min 0,0 UV-I 0 W/m 12,9 km/h (3 Bft)
23.12.2013 02:04 6,9 C 5,6 C 90 % 1015,5 hPa 0,0 l/m 0 min 0 min 0,0 UV-I 0 W/m 12,9 km/h (3 Bft)
23.12.2013 02:06 6,9 C 5,6 C 90 % 1015,5 hPa 0,0 l/m 0 min 0 min 0,0 UV-I 0 W/m 12,9 km/h (3 Bft)
23.12.2013 02:08 6,9 C 5,6 C 90 % 1015,5 hPa 0,0 l/m 0 min 0 min 0,0 UV-I 0 W/m 15,4 km/h (3 Bft)
23.12.2013 02:10 7,0 C 5,6 C 90 % 1015,5 hPa 0,0 l/m 0 min 2 min 0,0 UV-I 0 W/m 10,3 km/h (2 Bft)
23.12.2013 02:12 7,0 C 5,6 C 90 % 1015,4 hPa 0,0 l/m 0 min 2 min 0,0 UV-I 0 W/m 15,4 km/h (3 Bft)
23.12.2013 02:14 7,0 C 5,6 C 90 % 1015,4 hPa 0,0 l/m 0 min 0 min 0,0 UV-I 0 W/m 30,9 km/h (5 Bft)
23.12.2013 02:16 7,0 C 5,6 C 90 % 1015,5 hPa 0,0 l/m 0 min 0 min 0,0 UV-I 0 W/m 25,7 km/h (4 Bft)
23.12.2013 02:18 7,1 C 5,6 C 90 % 1015,5 hPa 0,0 l/m 0 min 0 min 0,0 UV-I 0 W/m 23,2 km/h (4 Bft)
23.12.2013 02:20 7,1 C 5,6 C 90 % 1015,5 hPa 0,0 l/m 0 min 2 min 0,0 UV-I 0 W/m 18,0 km/h (3 Bft)
23.12.2013 02:22 7,1 C 5,6 C 90 % 1015,6 hPa 0,0 l/m 0 min 0 min 0,0 UV-I 0 W/m 15,4 km/h (3 Bft)
23.12.2013 02:24 7,1 C 5,6 C 90 % 1015,6 hPa 0,0 l/m 0 min 0 min 0,0 UV-I 0 W/m 33,5 km/h (5 Bft)
23.12.2013 02:26 7,1 C 5,6 C 90 % 1015,5 hPa 0,0 l/m 0 min 0 min 0,0 UV-I 0 W/m 12,9 km/h (3 Bft)
23.12.2013 02:28 7,1 C 5,6 C 89 % 1015,5 hPa 0,0 l/m 0 min 0 min 0,0 UV-I 0 W/m 15,4 km/h (3 Bft)
23.12.2013 02:30 7,1 C 5,6 C 89 % 1015,6 hPa 0,0 l/m 0 min 0 min 0,0 UV-I 0 W/m 10,3 km/h (2 Bft)
23.12.2013 02:32 7,0 C 5,6 C 89 % 1015,6 hPa 0,0 l/m 0 min 0 min 0,0 UV-I 0 W/m 12,9 km/h (3 Bft)
23.12.2013 02:34 7,0 C 5,6 C 89 % 1015,6 hPa 0,0 l/m 0 min 0 min 0,0 UV-I 0 W/m 10,3 km/h (2 Bft)
23.12.2013 02:36 7,0 C 5,6 C 89 % 1015,6 hPa 0,0 l/m 0 min 0 min 0,0 UV-I 0 W/m 10,3 km/h (2 Bft)
23.12.2013 02:38 7,0 C 5,6 C 88 % 1015,6 hPa 0,0 l/m 0 min 0 min 0,0 UV-I 0 W/m 18,0 km/h (3 Bft)
23.12.2013 02:40 7,0 C 5,6 C 88 % 1015,6 hPa 0,0 l/m 0 min 0 min 0,0 UV-I 0 W/m 7,7 km/h (2 Bft)
23.12.2013 02:42 7,0 C 5,6 C 88 % 1015,6 hPa 0,0 l/m 0 min 0 min 0,0 UV-I 0 W/m 18,0 km/h (3 Bft)
23.12.2013 02:44 7,0 C 5,6 C 88 % 1015,7 hPa 0,0 l/m 0 min 0 min 0,0 UV-I 0 W/m 0,0 km/h (0 Bft)
23.12.2013 02:46 6,9 C 5,6 C 88 % 1015,7 hPa 0,0 l/m 0 min 0 min 0,0 UV-I 0 W/m 15,4 km/h (3 Bft)
23.12.2013 02:48 6,9 C 5,6 C 88 % 1015,8 hPa 0,0 l/m 0 min 0 min 0,0 UV-I 0 W/m 12,9 km/h (3 Bft)
23.12.2013 02:50 6,9 C 5,6 C 88 % 1015,8 hPa 0,0 l/m 0 min 0 min 0,0 UV-I 0 W/m 10,3 km/h (2 Bft)
23.12.2013 02:52 6,9 C 5,6 C 88 % 1015,9 hPa 0,0 l/m 0 min 0 min 0,0 UV-I 0 W/m 23,2 km/h (4 Bft)
23.12.2013 02:54 6,9 C 5,6 C 88 % 1015,9 hPa 0,0 l/m 0 min 0 min 0,0 UV-I 0 W/m 15,4 km/h (3 Bft)
23.12.2013 02:56 6,9 C 5,6 C 87 % 1015,9 hPa 0,0 l/m 0 min 0 min 0,0 UV-I 0 W/m 7,7 km/h (2 Bft)
23.12.2013 02:58 6,9 C 5,6 C 87 % 1016,0 hPa 0,0 l/m 0 min 0 min 0,0 UV-I 0 W/m 12,9 km/h (3 Bft)
23.12.2013 03:00 6,9 C 5,6 C 87 % 1016,1 hPa 0,0 l/m 0 min 2 min 0,0 UV-I 0 W/m 15,4 km/h (3 Bft)
23.12.2013 03:02 6,9 C 5,6 C 87 % 1016,1 hPa 0,0 l/m 0 min 2 min 0,0 UV-I 0 W/m 7,7 km/h (2 Bft)
23.12.2013 03:04 6,9 C 5,0 C 87 % 1016,1 hPa 0,0 l/m 0 min 0 min 0,0 UV-I 0 W/m 18,0 km/h (3 Bft)
23.12.2013 03:06 6,9 C 5,0 C 87 % 1016,1 hPa 0,0 l/m 0 min 0 min 0,0 UV-I 0 W/m 15,4 km/h (3 Bft)
23.12.2013 03:08 6,9 C 5,0 C 87 % 1016,1 hPa 0,0 l/m 0 min 0 min 0,0 UV-I 0 W/m 18,0 km/h (3 Bft)
23.12.2013 03:10 6,9 C 5,0 C 87 % 1016,1 hPa 0,0 l/m 0 min 0 min 0,0 UV-I 0 W/m 18,0 km/h (3 Bft)
23.12.2013 03:12 6,9 C 5,0 C 87 % 1016,1 hPa 0,0 l/m 0 min 0 min 0,0 UV-I 0 W/m 12,9 km/h (3 Bft)
23.12.2013 03:14 6,8 C 5,0 C 87 % 1016,2 hPa 0,0 l/m 0 min 0 min 0,0 UV-I 0 W/m 10,3 km/h (2 Bft)
23.12.2013 03:16 6,8 C 5,0 C 87 % 1016,1 hPa 0,0 l/m 0 min 0 min 0,0 UV-I 0 W/m 12,9 km/h (3 Bft)
23.12.2013 03:18 6,8 C 5,0 C 87 % 1016,2 hPa 0,0 l/m 0 min 0 min 0,0 UV-I 0 W/m 18,0 km/h (3 Bft)
23.12.2013 03:20 6,8 C 5,0 C 87 % 1016,0 hPa 0,0 l/m 0 min 0 min 0,0 UV-I 0 W/m 12,9 km/h (3 Bft)
23.12.2013 03:22 6,8 C 5,0 C 87 % 1016,1 hPa 0,0 l/m 0 min 0 min 0,0 UV-I 0 W/m 12,9 km/h (3 Bft)
23.12.2013 03:24 6,8 C 5,0 C 87 % 1016,1 hPa 0,0 l/m 0 min 0 min 0,0 UV-I 0 W/m 20,6 km/h (4 Bft)
23.12.2013 03:26 6,7 C 5,0 C 87 % 1016,2 hPa 0,0 l/m 0 min 0 min 0,0 UV-I 0 W/m 12,9 km/h (3 Bft)
23.12.2013 03:28 6,7 C 5,0 C 87 % 1016,2 hPa 0,0 l/m 0 min 0 min 0,0 UV-I 0 W/m 18,0 km/h (3 Bft)
23.12.2013 03:30 6,7 C 5,0 C 87 % 1016,2 hPa 0,0 l/m 0 min 0 min 0,0 UV-I 0 W/m 15,4 km/h (3 Bft)
23.12.2013 03:32 6,7 C 5,0 C 87 % 1016,2 hPa 0,0 l/m 0 min 0 min 0,0 UV-I 0 W/m 12,9 km/h (3 Bft)
23.12.2013 03:34 6,7 C 5,0 C 87 % 1016,2 hPa 0,0 l/m 0 min 0 min 0,0 UV-I 0 W/m 15,4 km/h (3 Bft)
23.12.2013 03:36 6,7 C 5,0 C 87 % 1016,2 hPa 0,0 l/m 0 min 0 min 0,0 UV-I 0 W/m 12,9 km/h (3 Bft)
23.12.2013 03:38 6,7 C 5,0 C 87 % 1016,4 hPa 0,0 l/m 0 min 0 min 0,0 UV-I 0 W/m 12,9 km/h (3 Bft)
23.12.2013 03:40 6,7 C 5,0 C 87 % 1016,4 hPa 0,0 l/m 0 min 0 min 0,0 UV-I 0 W/m 15,4 km/h (3 Bft)
23.12.2013 03:42 6,7 C 5,0 C 87 % 1016,5 hPa 0,0 l/m 0 min 0 min 0,0 UV-I 0 W/m 12,9 km/h (3 Bft)
23.12.2013 03:44 6,7 C 5,0 C 87 % 1016,5 hPa 0,0 l/m 0 min 0 min 0,0 UV-I 0 W/m 7,7 km/h (2 Bft)
23.12.2013 03:46 6,7 C 5,0 C 86 % 1016,3 hPa 0,0 l/m 0 min 0 min 0,0 UV-I 0 W/m 10,3 km/h (2 Bft)
23.12.2013 03:48 6,7 C 5,0 C 86 % 1016,4 hPa 0,0 l/m 0 min 0 min 0,0 UV-I 0 W/m 28,3 km/h (4 Bft)
23.12.2013 03:50 6,7 C 5,0 C 86 % 1016,5 hPa 0,0 l/m 0 min 0 min 0,0 UV-I 0 W/m 12,9 km/h (3 Bft)
23.12.2013 03:52 6,7 C 5,0 C 86 % 1016,4 hPa 0,0 l/m 0 min 0 min 0,0 UV-I 0 W/m 7,7 km/h (2 Bft)
23.12.2013 03:54 6,7 C 5,0 C 86 % 1016,3 hPa 0,0 l/m 0 min 0 min 0,0 UV-I 0 W/m 2,6 km/h (1 Bft)
23.12.2013 03:56 6,7 C 5,0 C 86 % 1016,3 hPa 0,0 l/m 0 min 0 min 0,0 UV-I 0 W/m 12,9 km/h (3 Bft)
23.12.2013 03:58 6,7 C 5,0 C 87 % 1016,3 hPa 0,0 l/m 0 min 0 min 0,0 UV-I 0 W/m 10,3 km/h (2 Bft)
23.12.2013 04:00 6,7 C 5,0 C 86 % 1016,3 hPa 0,0 l/m 0 min 0 min 0,0 UV-I 0 W/m 12,9 km/h (3 Bft)
23.12.2013 04:02 6,6 C 5,0 C 87 % 1016,2 hPa 0,0 l/m 0 min 0 min 0,0 UV-I 0 W/m 7,7 km/h (2 Bft)
23.12.2013 04:04 6,6 C 5,0 C 87 % 1016,2 hPa 0,0 l/m 0 min 0 min 0,0 UV-I 0 W/m 18,0 km/h (3 Bft)
23.12.2013 04:06 6,6 C 5,0 C 87 % 1016,3 hPa 0,0 l/m 0 min 0 min 0,0 UV-I 0 W/m 10,3 km/h (2 Bft)
23.12.2013 04:08 6,6 C 5,0 C 87 % 1016,3 hPa 0,0 l/m 0 min 0 min 0,0 UV-I 0 W/m 10,3 km/h (2 Bft)
23.12.2013 04:10 6,6 C 5,0 C 87 % 1016,3 hPa 0,0 l/m 0 min 0 min 0,0 UV-I 0 W/m 10,3 km/h (2 Bft)
23.12.2013 04:12 6,6 C 5,0 C 87 % 1016,2 hPa 0,0 l/m 0 min 0 min 0,0 UV-I 0 W/m 15,4 km/h (3 Bft)
23.12.2013 04:14 6,6 C 5,0 C 87 % 1016,3 hPa 0,0 l/m 0 min 0 min 0,0 UV-I 0 W/m 15,4 km/h (3 Bft)
23.12.2013 04:16 6,5 C 5,0 C 87 % 1016,3 hPa 0,0 l/m 0 min 0 min 0,0 UV-I 0 W/m 12,9 km/h (3 Bft)
23.12.2013 04:18 6,5 C 5,0 C 88 % 1016,4 hPa 0,0 l/m 0 min 0 min 0,0 UV-I 0 W/m 10,3 km/h (2 Bft)
23.12.2013 04:20 6,5 C 5,0 C 87 % 1016,4 hPa 0,0 l/m 0 min 0 min 0,0 UV-I 0 W/m 10,3 km/h (2 Bft)
23.12.2013 04:22 6,5 C 5,0 C 88 % 1016,3 hPa 0,0 l/m 0 min 0 min 0,0 UV-I 0 W/m 2,6 km/h (1 Bft)
23.12.2013 04:24 6,5 C 5,0 C 88 % 1016,3 hPa 0,0 l/m 0 min 0 min 0,0 UV-I 0 W/m 10,3 km/h (2 Bft)
23.12.2013 04:26 6,4 C 5,0 C 88 % 1016,2 hPa 0,0 l/m 0 min 0 min 0,0 UV-I 0 W/m 10,3 km/h (2 Bft)
23.12.2013 04:28 6,4 C 5,0 C 88 % 1016,2 hPa 0,0 l/m 0 min 0 min 0,0 UV-I 0 W/m 7,7 km/h (2 Bft)
23.12.2013 04:30 6,4 C 5,0 C 88 % 1016,3 hPa 0,0 l/m 0 min 0 min 0,0 UV-I 0 W/m 2,6 km/h (1 Bft)
23.12.2013 04:32 6,4 C 5,0 C 88 % 1016,4 hPa 0,0 l/m 0 min 0 min 0,0 UV-I 0 W/m 15,4 km/h (3 Bft)
23.12.2013 04:34 6,4 C 5,0 C 88 % 1016,4 hPa 0,0 l/m 0 min 0 min 0,0 UV-I 0 W/m 10,3 km/h (2 Bft)
23.12.2013 04:36 6,4 C 5,0 C 88 % 1016,3 hPa 0,0 l/m 0 min 0 min 0,0 UV-I 0 W/m 12,9 km/h (3 Bft)
23.12.2013 04:38 6,4 C 5,0 C 88 % 1016,4 hPa 0,0 l/m 0 min 0 min 0,0 UV-I 0 W/m 10,3 km/h (2 Bft)
23.12.2013 04:40 6,4 C 5,0 C 88 % 1016,3 hPa 0,0 l/m 0 min 0 min 0,0 UV-I 0 W/m 0,0 km/h (0 Bft)
23.12.2013 04:42 6,4 C 5,0 C 89 % 1016,4 hPa 0,0 l/m 0 min 0 min 0,0 UV-I 0 W/m 12,9 km/h (3 Bft)
23.12.2013 04:44 6,4 C 5,0 C 89 % 1016,5 hPa 0,0 l/m 0 min 0 min 0,0 UV-I 0 W/m 5,1 km/h (1 Bft)
23.12.2013 04:46 6,4 C 5,0 C 88 % 1016,4 hPa 0,0 l/m 0 min 0 min 0,0 UV-I 0 W/m 15,4 km/h (3 Bft)
23.12.2013 04:48 6,4 C 4,4 C 89 % 1016,4 hPa 0,0 l/m 0 min 0 min 0,0 UV-I 0 W/m 10,3 km/h (2 Bft)
23.12.2013 04:50 6,4 C 4,4 C 89 % 1016,5 hPa 0,0 l/m 0 min 0 min 0,0 UV-I 0 W/m 7,7 km/h (2 Bft)
23.12.2013 04:52 6,4 C 5,0 C 89 % 1016,4 hPa 0,0 l/m 0 min 0 min 0,0 UV-I 0 W/m 10,3 km/h (2 Bft)
23.12.2013 04:54 6,3 C 5,0 C 89 % 1016,4 hPa 0,0 l/m 0 min 0 min 0,0 UV-I 0 W/m 15,4 km/h (3 Bft)
23.12.2013 04:56 6,3 C 5,0 C 89 % 1016,5 hPa 0,0 l/m 0 min 0 min 0,0 UV-I 0 W/m 10,3 km/h (2 Bft)
23.12.2013 04:58 6,3 C 4,4 C 89 % 1016,6 hPa 0,0 l/m 0 min 0 min 0,0 UV-I 0 W/m 15,4 km/h (3 Bft)
23.12.2013 05:00 6,3 C 4,4 C 89 % 1016,5 hPa 0,0 l/m 0 min 0 min 0,0 UV-I 0 W/m 5,1 km/h (1 Bft)
23.12.2013 05:02 6,3 C 4,4 C 89 % 1016,4 hPa 0,0 l/m 0 min 0 min 0,0 UV-I 0 W/m 28,3 km/h (4 Bft)
23.12.2013 05:04 6,3 C 5,0 C 89 % 1016,4 hPa 0,0 l/m 0 min 0 min 0,0 UV-I 0 W/m 12,9 km/h (3 Bft)
23.12.2013 05:06 6,3 C 5,0 C 89 % 1016,4 hPa 0,0 l/m 0 min 0 min 0,0 UV-I 0 W/m 12,9 km/h (3 Bft)
23.12.2013 05:08 6,3 C 5,0 C 89 % 1016,5 hPa 0,0 l/m 0 min 0 min 0,0 UV-I 0 W/m 12,9 km/h (3 Bft)
23.12.2013 05:10 6,3 C 5,0 C 89 % 1016,5 hPa 0,0 l/m 0 min 0 min 0,0 UV-I 0 W/m 12,9 km/h (3 Bft)
23.12.2013 05:12 6,3 C 5,0 C 89 % 1016,4 hPa 0,0 l/m 0 min 0 min 0,0 UV-I 0 W/m 12,9 km/h (3 Bft)
23.12.2013 05:14 6,3 C 5,0 C 90 % 1016,4 hPa 0,0 l/m 0 min 0 min 0,0 UV-I 0 W/m 5,1 km/h (1 Bft)
23.12.2013 05:16 6,3 C 5,0 C 90 % 1016,4 hPa 0,0 l/m 0 min 0 min 0,0 UV-I 0 W/m 12,9 km/h (3 Bft)
23.12.2013 05:18 6,3 C 5,0 C 90 % 1016,4 hPa 0,0 l/m 0 min 0 min 0,0 UV-I 0 W/m 12,9 km/h (3 Bft)
23.12.2013 05:20 6,3 C 5,0 C 90 % 1016,3 hPa 0,0 l/m 0 min 0 min 0,0 UV-I 0 W/m 18,0 km/h (3 Bft)
23.12.2013 05:22 6,3 C 5,0 C 90 % 1016,4 hPa 0,0 l/m 0 min 0 min 0,0 UV-I 0 W/m 12,9 km/h (3 Bft)
23.12.2013 05:24 6,3 C 5,0 C 90 % 1016,4 hPa 0,0 l/m 0 min 0 min 0,0 UV-I 0 W/m 12,9 km/h (3 Bft)
23.12.2013 05:26 6,3 C 5,0 C 90 % 1016,5 hPa 0,0 l/m 0 min 0 min 0,0 UV-I 0 W/m 12,9 km/h (3 Bft)
23.12.2013 05:28 6,3 C 5,0 C 90 % 1016,5 hPa 0,0 l/m 0 min 0 min 0,0 UV-I 0 W/m 10,3 km/h (2 Bft)
23.12.2013 05:30 6,3 C 5,0 C 90 % 1016,5 hPa 0,0 l/m 0 min 0 min 0,0 UV-I 0 W/m 20,6 km/h (4 Bft)
23.12.2013 05:32 6,3 C 5,0 C 90 % 1016,5 hPa 0,0 l/m 0 min 0 min 0,0 UV-I 0 W/m 15,4 km/h (3 Bft)
23.12.2013 05:34 6,3 C 5,0 C 90 % 1016,5 hPa 0,0 l/m 0 min 0 min 0,0 UV-I 0 W/m 7,7 km/h (2 Bft)
23.12.2013 05:36 6,3 C 5,0 C 90 % 1016,5 hPa 0,0 l/m 0 min 0 min 0,0 UV-I 0 W/m 18,0 km/h (3 Bft)
23.12.2013 05:38 6,3 C 5,0 C 90 % 1016,4 hPa 0,0 l/m 0 min 0 min 0,0 UV-I 0 W/m 20,6 km/h (4 Bft)
23.12.2013 05:40 6,4 C 5,0 C 90 % 1016,5 hPa 0,0 l/m 0 min 0 min 0,0 UV-I 0 W/m 20,6 km/h (4 Bft)
23.12.2013 05:42 6,4 C 5,0 C 90 % 1016,4 hPa 0,0 l/m 0 min 0 min 0,0 UV-I 0 W/m 10,3 km/h (2 Bft)
23.12.2013 05:44 6,4 C 5,0 C 90 % 1016,4 hPa 0,0 l/m 0 min 0 min 0,0 UV-I 0 W/m 12,9 km/h (3 Bft)
23.12.2013 05:46 6,4 C 5,0 C 90 % 1016,3 hPa 0,0 l/m 0 min 0 min 0,0 UV-I 0 W/m 10,3 km/h (2 Bft)
23.12.2013 05:48 6,4 C 5,0 C 90 % 1016,4 hPa 0,0 l/m 0 min 0 min 0,0 UV-I 0 W/m 10,3 km/h (2 Bft)
23.12.2013 05:50 6,4 C 5,0 C 89 % 1016,4 hPa 0,0 l/m 0 min 0 min 0,0 UV-I 0 W/m 12,9 km/h (3 Bft)
23.12.2013 05:52 6,4 C 5,0 C 89 % 1016,3 hPa 0,0 l/m 0 min 0 min 0,0 UV-I 0 W/m 10,3 km/h (2 Bft)
23.12.2013 05:54 6,4 C 5,0 C 89 % 1016,3 hPa 0,0 l/m 0 min 0 min 0,0 UV-I 0 W/m 12,9 km/h (3 Bft)
23.12.2013 05:56 6,4 C 5,0 C 89 % 1016,2 hPa 0,0 l/m 0 min 0 min 0,0 UV-I 0 W/m 20,6 km/h (4 Bft)
23.12.2013 05:58 6,4 C 5,0 C 89 % 1016,3 hPa 0,0 l/m 0 min 0 min 0,0 UV-I 0 W/m 15,4 km/h (3 Bft)
23.12.2013 06:00 6,4 C 5,0 C 89 % 1016,2 hPa 0,0 l/m 0 min 0 min 0,0 UV-I 0 W/m 12,9 km/h (3 Bft)
23.12.2013 06:02 6,4 C 5,0 C 89 % 1016,3 hPa 0,0 l/m 0 min 0 min 0,0 UV-I 0 W/m 10,3 km/h (2 Bft)
23.12.2013 06:04 6,4 C 5,0 C 89 % 1016,3 hPa 0,0 l/m 0 min 0 min 0,0 UV-I 0 W/m 7,7 km/h (2 Bft)
23.12.2013 06:06 6,4 C 4,4 C 89 % 1016,3 hPa 0,0 l/m 0 min 0 min 0,0 UV-I 0 W/m 7,7 km/h (2 Bft)
23.12.2013 06:08 6,4 C 4,4 C 89 % 1016,2 hPa 0,0 l/m 0 min 0 min 0,0 UV-I 0 W/m 18,0 km/h (3 Bft)
23.12.2013 06:10 6,4 C 4,4 C 89 % 1016,2 hPa 0,0 l/m 0 min 0 min 0,0 UV-I 0 W/m 25,7 km/h (4 Bft)
23.12.2013 06:12 6,4 C 4,4 C 89 % 1016,2 hPa 0,0 l/m 0 min 0 min 0,0 UV-I 0 W/m 10,3 km/h (2 Bft)
23.12.2013 06:14 6,3 C 4,4 C 89 % 1016,2 hPa 0,0 l/m 0 min 0 min 0,0 UV-I 0 W/m 18,0 km/h (3 Bft)
23.12.2013 06:16 6,3 C 4,4 C 89 % 1016,2 hPa 0,0 l/m 0 min 0 min 0,0 UV-I 0 W/m 18,0 km/h (3 Bft)
23.12.2013 06:18 6,3 C 4,4 C 89 % 1016,1 hPa 0,0 l/m 0 min 0 min 0,0 UV-I 0 W/m 15,4 km/h (3 Bft)
23.12.2013 06:20 6,3 C 4,4 C 89 % 1016,1 hPa 0,0 l/m 0 min 0 min 0,0 UV-I 0 W/m 15,4 km/h (3 Bft)
23.12.2013 06:22 6,3 C 4,4 C 89 % 1016,1 hPa 0,0 l/m 0 min 0 min 0,0 UV-I 0 W/m 18,0 km/h (3 Bft)
23.12.2013 06:24 6,3 C 4,4 C 89 % 1016,1 hPa 0,0 l/m 0 min 0 min 0,0 UV-I 0 W/m 7,7 km/h (2 Bft)
23.12.2013 06:26 6,2 C 4,4 C 89 % 1016,1 hPa 0,0 l/m 0 min 0 min 0,0 UV-I 0 W/m 12,9 km/h (3 Bft)
23.12.2013 06:28 6,2 C 4,4 C 89 % 1015,9 hPa 0,0 l/m 0 min 0 min 0,0 UV-I 0 W/m 7,7 km/h (2 Bft)
23.12.2013 06:30 6,2 C 4,4 C 89 % 1016,1 hPa 0,0 l/m 0 min 0 min 0,0 UV-I 0 W/m 12,9 km/h (3 Bft)
23.12.2013 06:32 6,2 C 4,4 C 89 % 1016,0 hPa 0,0 l/m 0 min 0 min 0,0 UV-I 0 W/m 12,9 km/h (3 Bft)
23.12.2013 06:34 6,2 C 4,4 C 89 % 1015,9 hPa 0,0 l/m 0 min 0 min 0,0 UV-I 0 W/m 15,4 km/h (3 Bft)
23.12.2013 06:36 6,1 C 4,4 C 89 % 1016,1 hPa 0,0 l/m 0 min 0 min 0,0 UV-I 0 W/m 7,7 km/h (2 Bft)
23.12.2013 06:38 6,1 C 4,4 C 89 % 1016,1 hPa 0,0 l/m 0 min 0 min 0,0 UV-I 0 W/m 2,6 km/h (1 Bft)
23.12.2013 06:40 6,1 C 4,4 C 89 % 1016,1 hPa 0,0 l/m 0 min 0 min 0,0 UV-I 0 W/m 0,0 km/h (0 Bft)
23.12.2013 06:42 6,1 C 4,4 C 89 % 1016,1 hPa 0,0 l/m 0 min 0 min 0,0 UV-I 0 W/m 12,9 km/h (3 Bft)
23.12.2013 06:44 6,1 C 4,4 C 89 % 1016,1 hPa 0,0 l/m 0 min 0 min 0,0 UV-I 0 W/m 18,0 km/h (3 Bft)
23.12.2013 06:46 6,0 C 3,9 C 89 % 1016,1 hPa 0,0 l/m 0 min 0 min 0,0 UV-I 0 W/m 5,1 km/h (1 Bft)
23.12.2013 06:48 6,0 C 3,9 C 89 % 1016,2 hPa 0,0 l/m 0 min 0 min 0,0 UV-I 0 W/m 12,9 km/h (3 Bft)
23.12.2013 06:50 5,9 C 4,4 C 89 % 1016,1 hPa 0,0 l/m 0 min 0 min 0,0 UV-I 0 W/m 7,7 km/h (2 Bft)
23.12.2013 06:52 5,9 C 4,4 C 89 % 1016,2 hPa 0,0 l/m 0 min 0 min 0,0 UV-I 0 W/m 12,9 km/h (3 Bft)
23.12.2013 06:54 5,9 C 4,4 C 89 % 1016,2 hPa 0,0 l/m 0 min 0 min 0,0 UV-I 0 W/m 12,9 km/h (3 Bft)
23.12.2013 06:56 5,9 C 4,4 C 89 % 1016,2 hPa 0,0 l/m 0 min 0 min 0,0 UV-I 0 W/m 10,3 km/h (2 Bft)
23.12.2013 06:58 5,9 C 4,4 C 89 % 1016,3 hPa 0,0 l/m 0 min 0 min 0,0 UV-I 0 W/m 15,4 km/h (3 Bft)
23.12.2013 07:00 5,9 C 4,4 C 89 % 1016,3 hPa 0,0 l/m 0 min 0 min 0,0 UV-I 0 W/m 15,4 km/h (3 Bft)
23.12.2013 07:02 5,9 C 4,4 C 90 % 1016,3 hPa 0,0 l/m 0 min 0 min 0,0 UV-I 0 W/m 7,7 km/h (2 Bft)
23.12.2013 07:04 5,9 C 4,4 C 90 % 1016,3 hPa 0,0 l/m 0 min 0 min 0,0 UV-I 0 W/m 15,4 km/h (3 Bft)
23.12.2013 07:06 5,9 C 4,4 C 89 % 1016,3 hPa 0,0 l/m 0 min 0 min 0,0 UV-I 0 W/m 12,9 km/h (3 Bft)
23.12.2013 07:08 5,8 C 4,4 C 89 % 1016,3 hPa 0,0 l/m 0 min 0 min 0,0 UV-I 0 W/m 15,4 km/h (3 Bft)
23.12.2013 07:10 5,8 C 3,9 C 89 % 1016,3 hPa 0,0 l/m 0 min 0 min 0,0 UV-I 0 W/m 15,4 km/h (3 Bft)
23.12.2013 07:12 5,8 C 4,4 C 90 % 1016,4 hPa 0,0 l/m 0 min 0 min 0,0 UV-I 0 W/m 20,6 km/h (4 Bft)
23.12.2013 07:14 5,8 C 4,4 C 90 % 1016,4 hPa 0,0 l/m 0 min 0 min 0,0 UV-I 0 W/m 10,3 km/h (2 Bft)
23.12.2013 07:16 5,8 C 4,4 C 90 % 1016,3 hPa 0,0 l/m 0 min 0 min 0,0 UV-I 0 W/m 10,3 km/h (2 Bft)
23.12.2013 07:18 5,8 C 4,4 C 90 % 1016,3 hPa 0,0 l/m 0 min 0 min 0,0 UV-I 0 W/m 7,7 km/h (2 Bft)
23.12.2013 07:20 5,8 C 4,4 C 90 % 1016,2 hPa 0,0 l/m 0 min 0 min 0,0 UV-I 0 W/m 7,7 km/h (2 Bft)
23.12.2013 07:22 5,8 C 4,4 C 90 % 1016,2 hPa 0,0 l/m 0 min 0 min 0,0 UV-I 0 W/m 5,1 km/h (1 Bft)
23.12.2013 07:24 5,8 C 4,4 C 90 % 1016,2 hPa 0,0 l/m 0 min 0 min 0,0 UV-I 0 W/m 5,1 km/h (1 Bft)
23.12.2013 07:26 5,8 C 4,4 C 90 % 1016,2 hPa 0,0 l/m 0 min 0 min 0,0 UV-I 0 W/m 10,3 km/h (2 Bft)
23.12.2013 07:28 5,8 C 4,4 C 90 % 1016,1 hPa 0,0 l/m 0 min 0 min 0,0 UV-I 0 W/m 2,6 km/h (1 Bft)
23.12.2013 07:30 5,8 C 4,4 C 90 % 1016,1 hPa 0,0 l/m 0 min 0 min 0,0 UV-I 0 W/m 10,3 km/h (2 Bft)
23.12.2013 07:32 5,8 C 4,4 C 90 % 1016,2 hPa 0,0 l/m 0 min 0 min 0,0 UV-I 0 W/m 5,1 km/h (1 Bft)
23.12.2013 07:34 5,7 C 4,4 C 90 % 1016,1 hPa 0,0 l/m 0 min 0 min 0,0 UV-I 0 W/m 5,1 km/h (1 Bft)
23.12.2013 07:36 5,7 C 3,9 C 90 % 1016,1 hPa 0,0 l/m 0 min 0 min 0,0 UV-I 0 W/m 2,6 km/h (1 Bft)
23.12.2013 07:38 5,7 C 3,9 C 90 % 1016,0 hPa 0,0 l/m 0 min 0 min 0,0 UV-I 0 W/m 0,0 km/h (0 Bft)
23.12.2013 07:40 5,7 C 3,9 C 90 % 1016,0 hPa 0,0 l/m 0 min 0 min 0,0 UV-I 0 W/m 0,0 km/h (0 Bft)
23.12.2013 07:42 5,7 C 3,9 C 90 % 1016,0 hPa 0,0 l/m 0 min 0 min 0,0 UV-I 0 W/m 10,3 km/h (2 Bft)
23.12.2013 07:44 5,7 C 3,9 C 90 % 1016,0 hPa 0,0 l/m 0 min 0 min 0,0 UV-I 0 W/m 10,3 km/h (2 Bft)
23.12.2013 07:46 5,7 C 3,9 C 90 % 1016,0 hPa 0,0 l/m 0 min 0 min 0,0 UV-I 0 W/m 7,7 km/h (2 Bft)
23.12.2013 07:48 5,6 C 3,9 C 90 % 1015,9 hPa 0,0 l/m 0 min 0 min 0,0 UV-I 0 W/m 7,7 km/h (2 Bft)
23.12.2013 07:50 5,6 C 3,3 C 90 % 1015,9 hPa 0,0 l/m 0 min 0 min 0,0 UV-I 0 W/m 0,0 km/h (0 Bft)
23.12.2013 07:52 5,6 C 3,3 C 90 % 1015,9 hPa 0,0 l/m 0 min 0 min 0,0 UV-I 0 W/m 0,0 km/h (0 Bft)
23.12.2013 07:54 5,6 C 3,3 C 90 % 1015,9 hPa 0,0 l/m 0 min 0 min 0,0 UV-I 0 W/m 5,1 km/h (1 Bft)
23.12.2013 07:56 5,5 C 3,3 C 90 % 1015,8 hPa 0,0 l/m 0 min 0 min 0,0 UV-I 0 W/m 5,1 km/h (1 Bft)
23.12.2013 07:58 5,5 C 3,3 C 90 % 1015,9 hPa 0,0 l/m 0 min 0 min 0,0 UV-I 0 W/m 0,0 km/h (0 Bft)
23.12.2013 08:00 5,4 C 3,3 C 90 % 1016,0 hPa 0,0 l/m 0 min 0 min 0,0 UV-I 0 W/m 5,1 km/h (1 Bft)
23.12.2013 08:02 5,4 C 3,3 C 90 % 1015,9 hPa 0,0 l/m 0 min 0 min 0,0 UV-I 0 W/m 7,7 km/h (2 Bft)
23.12.2013 08:04 5,4 C 3,3 C 90 % 1015,9 hPa 0,0 l/m 0 min 0 min 0,0 UV-I 0 W/m 0,0 km/h (0 Bft)
23.12.2013 08:06 5,4 C 3,3 C 90 % 1015,9 hPa 0,0 l/m 0 min 0 min 0,0 UV-I 0 W/m 0,0 km/h (0 Bft)
23.12.2013 08:08 5,4 C 3,3 C 90 % 1015,9 hPa 0,0 l/m 0 min 0 min 0,0 UV-I 0 W/m 7,7 km/h (2 Bft)
23.12.2013 08:10 5,3 C 3,3 C 90 % 1015,9 hPa 0,0 l/m 0 min 0 min 0,0 UV-I 0 W/m 5,1 km/h (1 Bft)
23.12.2013 08:12 5,3 C 3,3 C 90 % 1015,9 hPa 0,0 l/m 0 min 0 min 0,0 UV-I 0 W/m 2,6 km/h (1 Bft)
23.12.2013 08:14 5,3 C 3,3 C 90 % 1015,9 hPa 0,0 l/m 0 min 0 min 0,0 UV-I 0 W/m 0,0 km/h (0 Bft)
23.12.2013 08:16 5,3 C 3,3 C 91 % 1015,9 hPa 0,0 l/m 0 min 0 min 0,0 UV-I 0 W/m 7,7 km/h (2 Bft)
23.12.2013 08:18 5,2 C 3,3 C 91 % 1015,9 hPa 0,0 l/m 0 min 0 min 0,0 UV-I 0 W/m 7,7 km/h (2 Bft)
23.12.2013 08:20 5,2 C 3,3 C 91 % 1015,9 hPa 0,0 l/m 0 min 0 min 0,0 UV-I 0 W/m 2,6 km/h (1 Bft)
23.12.2013 08:22 5,2 C 3,3 C 91 % 1015,9 hPa 0,0 l/m 0 min 0 min 0,0 UV-I 0 W/m 5,1 km/h (1 Bft)
23.12.2013 08:24 5,2 C 3,3 C 91 % 1015,9 hPa 0,0 l/m 0 min 0 min 0,0 UV-I 0 W/m 0,0 km/h (0 Bft)
23.12.2013 08:26 5,2 C 3,3 C 91 % 1015,9 hPa 0,0 l/m 0 min 0 min 0,0 UV-I 0 W/m 10,3 km/h (2 Bft)
23.12.2013 08:28 5,1 C 3,3 C 91 % 1015,9 hPa 0,0 l/m 0 min 0 min 0,0 UV-I 0 W/m 7,7 km/h (2 Bft)
23.12.2013 08:30 5,1 C 3,3 C 91 % 1015,9 hPa 0,0 l/m 0 min 0 min 0,0 UV-I 0 W/m 5,1 km/h (1 Bft)
23.12.2013 08:32 5,1 C 3,3 C 91 % 1015,9 hPa 0,0 l/m 0 min 0 min 0,0 UV-I 0 W/m 7,7 km/h (2 Bft)
23.12.2013 08:34 5,1 C 3,3 C 91 % 1015,9 hPa 0,0 l/m 0 min 0 min 0,0 UV-I 0 W/m 5,1 km/h (1 Bft)
23.12.2013 08:36 5,1 C 3,3 C 91 % 1015,9 hPa 0,0 l/m 0 min 0 min 0,0 UV-I 0 W/m 10,3 km/h (2 Bft)
23.12.2013 08:38 5,1 C 3,3 C 91 % 1015,9 hPa 0,0 l/m 0 min 0 min 0,0 UV-I 0 W/m 5,1 km/h (1 Bft)
23.12.2013 08:40 5,1 C 3,3 C 92 % 1015,8 hPa 0,0 l/m 0 min 0 min 0,0 UV-I 0 W/m 0,0 km/h (0 Bft)
23.12.2013 08:42 5,1 C 3,3 C 92 % 1015,9 hPa 0,0 l/m 0 min 0 min 0,0 UV-I 5 W/m 2,6 km/h (1 Bft)
23.12.2013 08:44 5,1 C 3,3 C 92 % 1015,8 hPa 0,0 l/m 0 min 0 min 0,0 UV-I 5 W/m 5,1 km/h (1 Bft)
23.12.2013 08:46 5,1 C 3,3 C 92 % 1015,8 hPa 0,0 l/m 0 min 0 min 0,0 UV-I 7 W/m 0,0 km/h (0 Bft)
23.12.2013 08:48 5,1 C 3,3 C 92 % 1015,9 hPa 0,0 l/m 0 min 0 min 0,0 UV-I 7 W/m 0,0 km/h (0 Bft)
23.12.2013 08:50 5,1 C 3,3 C 92 % 1015,8 hPa 0,0 l/m 0 min 0 min 0,0 UV-I 9 W/m 2,6 km/h (1 Bft)
23.12.2013 08:52 5,1 C 3,3 C 92 % 1015,8 hPa 0,0 l/m 0 min 0 min 0,0 UV-I 11 W/m 5,1 km/h (1 Bft)
23.12.2013 08:54 5,1 C 3,3 C 92 % 1015,8 hPa 0,0 l/m 0 min 0 min 0,0 UV-I 11 W/m 15,4 km/h (3 Bft)
23.12.2013 08:56 5,1 C 3,3 C 92 % 1015,8 hPa 0,0 l/m 0 min 0 min 0,0 UV-I 12 W/m 12,9 km/h (3 Bft)
23.12.2013 08:58 5,0 C 3,3 C 92 % 1015,7 hPa 0,0 l/m 0 min 0 min 0,0 UV-I 14 W/m 7,7 km/h (2 Bft)
23.12.2013 09:00 5,0 C 3,3 C 92 % 1015,7 hPa 0,0 l/m 0 min 0 min 0,0 UV-I 18 W/m 10,3 km/h (2 Bft)
23.12.2013 09:02 5,0 C 3,3 C 92 % 1015,6 hPa 0,0 l/m 0 min 0 min 0,0 UV-I 19 W/m 0,0 km/h (0 Bft)
23.12.2013 09:04 5,0 C 3,3 C 92 % 1015,6 hPa 0,0 l/m 0 min 0 min 0,0 UV-I 19 W/m 15,4 km/h (3 Bft)
23.12.2013 09:06 5,0 C 3,3 C 92 % 1015,7 hPa 0,0 l/m 0 min 0 min 0,0 UV-I 21 W/m 15,4 km/h (3 Bft)
23.12.2013 09:08 5,0 C 3,3 C 92 % 1015,6 hPa 0,0 l/m 0 min 0 min 0,0 UV-I 23 W/m 7,7 km/h (2 Bft)
23.12.2013 09:10 5,0 C 3,3 C 92 % 1015,7 hPa 0,0 l/m 0 min 0 min 0,0 UV-I 23 W/m 10,3 km/h (2 Bft)
23.12.2013 09:12 5,0 C 3,3 C 92 % 1015,7 hPa 0,0 l/m 0 min 0 min 0,0 UV-I 26 W/m 7,7 km/h (2 Bft)
23.12.2013 09:14 5,0 C 3,3 C 92 % 1015,7 hPa 0,0 l/m 0 min 0 min 0,0 UV-I 28 W/m 2,6 km/h (1 Bft)
23.12.2013 09:16 4,9 C 3,3 C 92 % 1015,7 hPa 0,0 l/m 0 min 0 min 0,0 UV-I 28 W/m 7,7 km/h (2 Bft)
23.12.2013 09:18 4,9 C 3,3 C 92 % 1015,7 hPa 0,0 l/m 0 min 0 min 0,0 UV-I 28 W/m 18,0 km/h (3 Bft)
23.12.2013 09:20 4,9 C 3,3 C 92 % 1015,7 hPa 0,0 l/m 0 min 0 min 0,0 UV-I 28 W/m 12,9 km/h (3 Bft)
23.12.2013 09:22 4,9 C 3,3 C 92 % 1015,7 hPa 0,0 l/m 0 min 0 min 0,0 UV-I 28 W/m 10,3 km/h (2 Bft)
23.12.2013 09:24 4,9 C 3,3 C 92 % 1015,7 hPa 0,0 l/m 0 min 0 min 0,0 UV-I 28 W/m 10,3 km/h (2 Bft)
23.12.2013 09:26 4,9 C 3,3 C 93 % 1015,6 hPa 0,0 l/m 0 min 0 min 0,0 UV-I 30 W/m 5,1 km/h (1 Bft)
23.12.2013 09:28 4,9 C 3,3 C 93 % 1015,7 hPa 0,0 l/m 0 min 0 min 0,0 UV-I 32 W/m 5,1 km/h (1 Bft)
23.12.2013 09:30 4,9 C 3,3 C 93 % 1015,6 hPa 0,0 l/m 0 min 0 min 0,0 UV-I 32 W/m 5,1 km/h (1 Bft)
23.12.2013 09:32 4,9 C 3,3 C 93 % 1015,6 hPa 0,0 l/m 0 min 0 min 0,0 UV-I 33 W/m 7,7 km/h (2 Bft)
23.12.2013 09:34 4,9 C 3,3 C 93 % 1015,5 hPa 0,0 l/m 0 min 0 min 0,0 UV-I 35 W/m 0,0 km/h (0 Bft)
23.12.2013 09:36 4,8 C 3,3 C 93 % 1015,5 hPa 0,0 l/m 0 min 0 min 0,0 UV-I 35 W/m 12,9 km/h (3 Bft)
23.12.2013 09:38 4,9 C 3,3 C 93 % 1015,4 hPa 0,0 l/m 0 min 0 min 0,0 UV-I 37 W/m 10,3 km/h (2 Bft)
23.12.2013 09:40 4,9 C 3,3 C 93 % 1015,4 hPa 0,0 l/m 0 min 0 min 0,0 UV-I 39 W/m 15,4 km/h (3 Bft)
23.12.2013 09:42 4,9 C 3,3 C 93 % 1015,4 hPa 0,0 l/m 0 min 0 min 0,0 UV-I 39 W/m 2,6 km/h (1 Bft)
23.12.2013 09:44 4,9 C 3,3 C 93 % 1015,5 hPa 0,0 l/m 0 min 0 min 0,0 UV-I 39 W/m 0,0 km/h (0 Bft)
23.12.2013 09:46 4,9 C 3,3 C 93 % 1015,4 hPa 0,0 l/m 0 min 0 min 0,0 UV-I 44 W/m 7,7 km/h (2 Bft)
23.12.2013 09:48 4,9 C 3,3 C 93 % 1015,4 hPa 0,0 l/m 0 min 0 min 0,0 UV-I 46 W/m 10,3 km/h (2 Bft)
23.12.2013 09:50 4,9 C 3,3 C 93 % 1015,4 hPa 0,0 l/m 0 min 0 min 0,0 UV-I 46 W/m 5,1 km/h (1 Bft)
23.12.2013 09:52 4,9 C 3,3 C 93 % 1015,4 hPa 0,0 l/m 0 min 0 min 0,0 UV-I 49 W/m 5,1 km/h (1 Bft)
23.12.2013 09:54 4,9 C 3,3 C 93 % 1015,4 hPa 0,0 l/m 0 min 0 min 0,0 UV-I 51 W/m 7,7 km/h (2 Bft)
23.12.2013 09:56 4,9 C 3,9 C 93 % 1015,3 hPa 0,0 l/m 0 min 0 min 0,0 UV-I 56 W/m 7,7 km/h (2 Bft)
23.12.2013 09:58 4,9 C 3,9 C 93 % 1015,3 hPa 0,0 l/m 0 min 0 min 0,0 UV-I 63 W/m 0,0 km/h (0 Bft)
23.12.2013 10:00 5,0 C 3,9 C 93 % 1015,3 hPa 0,0 l/m 0 min 0 min 0,0 UV-I 63 W/m 10,3 km/h (2 Bft)
23.12.2013 10:02 5,0 C 3,9 C 93 % 1015,3 hPa 0,0 l/m 0 min 0 min 0,0 UV-I 65 W/m 12,9 km/h (3 Bft)
23.12.2013 10:04 5,1 C 3,9 C 93 % 1015,3 hPa 0,0 l/m 0 min 0 min 0,0 UV-I 69 W/m 7,7 km/h (2 Bft)
23.12.2013 10:06 5,1 C 4,4 C 93 % 1015,3 hPa 0,0 l/m 0 min 0 min 0,0 UV-I 65 W/m 5,1 km/h (1 Bft)
23.12.2013 10:08 5,2 C 4,4 C 94 % 1015,3 hPa 0,0 l/m 0 min 0 min 0,0 UV-I 70 W/m 7,7 km/h (2 Bft)
23.12.2013 10:10 5,3 C 4,4 C 93 % 1015,3 hPa 0,0 l/m 0 min 0 min 0,0 UV-I 77 W/m 18,0 km/h (3 Bft)
23.12.2013 10:12 5,3 C 4,4 C 94 % 1015,2 hPa 0,0 l/m 0 min 0 min 0,0 UV-I 84 W/m 10,3 km/h (2 Bft)
23.12.2013 10:14 5,4 C 4,4 C 94 % 1015,3 hPa 0,0 l/m 0 min 0 min 0,0 UV-I 86 W/m 10,3 km/h (2 Bft)
23.12.2013 10:16 5,5 C 4,4 C 94 % 1015,3 hPa 0,0 l/m 2 min 0 min 0,0 UV-I 93 W/m 7,7 km/h (2 Bft)
23.12.2013 10:18 5,6 C 5,0 C 94 % 1015,4 hPa 0,0 l/m 2 min 0 min 0,0 UV-I 98 W/m 12,9 km/h (3 Bft)
23.12.2013 10:20 5,6 C 5,0 C 94 % 1015,4 hPa 0,0 l/m 2 min 0 min 0,0 UV-I 100 W/m 23,2 km/h (4 Bft)
23.12.2013 10:22 5,7 C 5,0 C 93 % 1015,5 hPa 0,0 l/m 0 min 0 min 0,0 UV-I 93 W/m 10,3 km/h (2 Bft)
23.12.2013 10:24 5,8 C 5,0 C 94 % 1015,4 hPa 0,0 l/m 0 min 0 min 0,0 UV-I 95 W/m 12,9 km/h (3 Bft)
23.12.2013 10:26 5,8 C 5,0 C 93 % 1015,3 hPa 0,0 l/m 0 min 0 min 0,0 UV-I 98 W/m 18,0 km/h (3 Bft)
23.12.2013 10:28 5,9 C 5,0 C 93 % 1015,3 hPa 0,0 l/m 0 min 0 min 0,0 UV-I 95 W/m 18,0 km/h (3 Bft)
23.12.2013 10:30 5,9 C 5,0 C 93 % 1015,3 hPa 0,0 l/m 0 min 0 min 0,0 UV-I 93 W/m 18,0 km/h (3 Bft)
23.12.2013 10:32 6,0 C 5,0 C 93 % 1015,3 hPa 0,0 l/m 0 min 0 min 0,0 UV-I 97 W/m 15,4 km/h (3 Bft)
23.12.2013 10:34 6,1 C 5,0 C 93 % 1015,4 hPa 0,0 l/m 0 min 0 min 0,0 UV-I 102 W/m 15,4 km/h (3 Bft)
23.12.2013 10:36 6,2 C 5,0 C 92 % 1015,3 hPa 0,0 l/m 0 min 0 min 0,0 UV-I 95 W/m 18,0 km/h (3 Bft)
23.12.2013 10:38 6,2 C 5,0 C 92 % 1015,3 hPa 0,0 l/m 0 min 0 min 0,0 UV-I 95 W/m 15,4 km/h (3 Bft)
23.12.2013 10:40 6,3 C 5,6 C 92 % 1015,3 hPa 0,0 l/m 2 min 0 min 0,0 UV-I 111 W/m 18,0 km/h (3 Bft)
23.12.2013 10:42 6,4 C 5,6 C 92 % 1015,3 hPa 0,0 l/m 2 min 0 min 0,0 UV-I 116 W/m 15,4 km/h (3 Bft)
23.12.2013 10:44 6,4 C 5,6 C 92 % 1015,2 hPa 0,0 l/m 2 min 0 min 0,0 UV-I 120 W/m 7,7 km/h (2 Bft)
23.12.2013 10:46 6,4 C 5,6 C 91 % 1015,2 hPa 0,0 l/m 2 min 0 min 0,0 UV-I 120 W/m 20,6 km/h (4 Bft)
23.12.2013 10:48 6,6 C 5,6 C 91 % 1015,3 hPa 0,0 l/m 2 min 0 min 0,0 UV-I 132 W/m 20,6 km/h (4 Bft)
23.12.2013 10:50 6,8 C 5,6 C 90 % 1015,2 hPa 0,0 l/m 2 min 0 min 0,0 UV-I 135 W/m 12,9 km/h (3 Bft)
23.12.2013 10:52 6,9 C 5,6 C 89 % 1015,2 hPa 0,0 l/m 2 min 0 min 0,0 UV-I 144 W/m 15,4 km/h (3 Bft)
23.12.2013 10:54 7,1 C 5,6 C 88 % 1015,2 hPa 0,0 l/m 2 min 0 min 0,0 UV-I 153 W/m 25,7 km/h (4 Bft)
23.12.2013 10:56 7,3 C 5,6 C 88 % 1015,2 hPa 0,0 l/m 2 min 0 min 0,0 UV-I 153 W/m 15,4 km/h (3 Bft)
23.12.2013 10:58 7,3 C 6,1 C 87 % 1015,2 hPa 0,0 l/m 0 min 0 min 0,0 UV-I 121 W/m 23,2 km/h (4 Bft)
23.12.2013 11:00 7,4 C 6,1 C 86 % 1015,2 hPa 0,0 l/m 2 min 0 min 0,0 UV-I 155 W/m 12,9 km/h (3 Bft)
23.12.2013 11:02 7,5 C 6,1 C 86 % 1015,1 hPa 0,0 l/m 2 min 0 min 0,0 UV-I 162 W/m 5,1 km/h (1 Bft)
23.12.2013 11:04 7,6 C 6,1 C 86 % 1015,1 hPa 0,0 l/m 2 min 0 min 0,0 UV-I 172 W/m 10,3 km/h (2 Bft)
23.12.2013 11:06 7,7 C 6,1 C 85 % 1015,1 hPa 0,0 l/m 2 min 0 min 0,0 UV-I 165 W/m 7,7 km/h (2 Bft)
23.12.2013 11:08 7,7 C 6,1 C 85 % 1015,1 hPa 0,0 l/m 2 min 0 min 0,0 UV-I 183 W/m 20,6 km/h (4 Bft)
23.12.2013 11:10 7,8 C 6,1 C 84 % 1015,0 hPa 0,0 l/m 2 min 0 min 0,0 UV-I 186 W/m 15,4 km/h (3 Bft)
23.12.2013 11:12 7,9 C 6,1 C 84 % 1015,0 hPa 0,0 l/m 2 min 0 min 0,0 UV-I 186 W/m 12,9 km/h (3 Bft)
23.12.2013 11:14 7,9 C 6,1 C 84 % 1015,0 hPa 0,0 l/m 2 min 0 min 0,0 UV-I 188 W/m 18,0 km/h (3 Bft)
23.12.2013 11:16 7,9 C 6,1 C 83 % 1014,9 hPa 0,0 l/m 2 min 0 min 0,0 UV-I 181 W/m 18,0 km/h (3 Bft)
23.12.2013 11:18 8,0 C 6,1 C 83 % 1014,9 hPa 0,0 l/m 2 min 0 min 0,0 UV-I 174 W/m 20,6 km/h (4 Bft)
23.12.2013 11:20 8,1 C 6,1 C 83 % 1014,9 hPa 0,0 l/m 2 min 0 min 0,0 UV-I 174 W/m 18,0 km/h (3 Bft)
23.12.2013 11:22 8,1 C 6,7 C 83 % 1014,7 hPa 0,0 l/m 2 min 0 min 0,0 UV-I 181 W/m 12,9 km/h (3 Bft)
23.12.2013 11:24 8,2 C 6,1 C 83 % 1014,7 hPa 0,0 l/m 2 min 0 min 0,0 UV-I 188 W/m 20,6 km/h (4 Bft)
23.12.2013 11:26 8,3 C 6,7 C 83 % 1014,8 hPa 0,0 l/m 2 min 0 min 0,0 UV-I 169 W/m 12,9 km/h (3 Bft)
23.12.2013 11:28 8,3 C 6,7 C 83 % 1014,8 hPa 0,0 l/m 2 min 0 min 0,0 UV-I 169 W/m 18,0 km/h (3 Bft)
23.12.2013 11:30 8,3 C 6,7 C 83 % 1014,7 hPa 0,0 l/m 2 min 0 min 0,0 UV-I 165 W/m 5,1 km/h (1 Bft)
23.12.2013 11:32 8,3 C 6,7 C 83 % 1014,7 hPa 0,0 l/m 2 min 0 min 0,0 UV-I 167 W/m 23,2 km/h (4 Bft)
23.12.2013 11:34 8,3 C 6,7 C 82 % 1014,7 hPa 0,0 l/m 2 min 0 min 0,0 UV-I 153 W/m 12,9 km/h (3 Bft)
23.12.2013 11:36 8,3 C 6,7 C 82 % 1014,6 hPa 0,0 l/m 2 min 0 min 0,0 UV-I 162 W/m 12,9 km/h (3 Bft)
23.12.2013 11:38 8,4 C 6,7 C 82 % 1014,6 hPa 0,0 l/m 2 min 0 min 0,0 UV-I 179 W/m 7,7 km/h (2 Bft)
23.12.2013 11:40 8,4 C 6,7 C 83 % 1014,6 hPa 0,0 l/m 2 min 0 min 0,0 UV-I 179 W/m 10,3 km/h (2 Bft)
23.12.2013 11:42 8,5 C 6,7 C 83 % 1014,4 hPa 0,0 l/m 2 min 0 min 0,0 UV-I 181 W/m 7,7 km/h (2 Bft)
23.12.2013 11:44 8,6 C 6,7 C 82 % 1014,3 hPa 0,0 l/m 2 min 0 min 0,0 UV-I 178 W/m 15,4 km/h (3 Bft)
23.12.2013 11:46 8,7 C 6,7 C 82 % 1014,3 hPa 0,0 l/m 2 min 0 min 0,0 UV-I 186 W/m 15,4 km/h (3 Bft)
23.12.2013 11:48 8,7 C 6,7 C 82 % 1014,3 hPa 0,0 l/m 2 min 0 min 0,0 UV-I 190 W/m 2,6 km/h (1 Bft)
23.12.2013 11:50 8,7 C 6,7 C 82 % 1014,3 hPa 0,0 l/m 2 min 0 min 0,0 UV-I 192 W/m 15,4 km/h (3 Bft)
23.12.2013 11:52 8,7 C 6,7 C 81 % 1014,2 hPa 0,0 l/m 2 min 0 min 0,0 UV-I 188 W/m 30,9 km/h (5 Bft)
23.12.2013 11:54 8,8 C 6,7 C 81 % 1014,3 hPa 0,0 l/m 2 min 0 min 0,0 UV-I 185 W/m 12,9 km/h (3 Bft)
23.12.2013 11:56 8,8 C 7,2 C 81 % 1014,2 hPa 0,0 l/m 2 min 0 min 0,0 UV-I 197 W/m 10,3 km/h (2 Bft)
23.12.2013 11:58 8,9 C 7,2 C 81 % 1014,1 hPa 0,0 l/m 2 min 0 min 0,0 UV-I 200 W/m 12,9 km/h (3 Bft)
23.12.2013 12:00 8,9 C 7,2 C 81 % 1014,1 hPa 0,0 l/m 2 min 0 min 0,0 UV-I 199 W/m 7,7 km/h (2 Bft)
23.12.2013 12:02 9,0 C 7,2 C 81 % 1014,2 hPa 0,0 l/m 2 min 0 min 0,0 UV-I 197 W/m 10,3 km/h (2 Bft)
23.12.2013 12:04 9,1 C 7,2 C 81 % 1014,1 hPa 0,0 l/m 2 min 0 min 0,0 UV-I 197 W/m 10,3 km/h (2 Bft)
23.12.2013 12:06 9,1 C 7,2 C 80 % 1014,1 hPa 0,0 l/m 2 min 0 min 0,0 UV-I 206 W/m 5,1 km/h (1 Bft)
23.12.2013 12:08 9,2 C 7,2 C 80 % 1014,0 hPa 0,0 l/m 2 min 0 min 0,0 UV-I 207 W/m 15,4 km/h (3 Bft)
23.12.2013 12:10 9,3 C 7,2 C 80 % 1013,9 hPa 0,0 l/m 2 min 0 min 0,0 UV-I 200 W/m 20,6 km/h (4 Bft)
23.12.2013 12:12 9,2 C 7,2 C 79 % 1014,0 hPa 0,0 l/m 0 min 0 min 0,0 UV-I 74 W/m 28,3 km/h (4 Bft)
23.12.2013 12:14 9,2 C 7,2 C 79 % 1014,0 hPa 0,0 l/m 0 min 0 min 0,0 UV-I 97 W/m 18,0 km/h (3 Bft)
23.12.2013 12:16 9,1 C 7,2 C 80 % 1013,9 hPa 0,0 l/m 0 min 0 min 0,0 UV-I 95 W/m 23,2 km/h (4 Bft)
23.12.2013 12:18 9,0 C 7,2 C 80 % 1013,8 hPa 0,0 l/m 2 min 0 min 0,0 UV-I 221 W/m 18,0 km/h (3 Bft)
23.12.2013 12:20 9,0 C 7,2 C 80 % 1013,7 hPa 0,0 l/m 2 min 0 min 0,0 UV-I 190 W/m 12,9 km/h (3 Bft)
23.12.2013 12:22 9,1 C 7,2 C 80 % 1013,6 hPa 0,0 l/m 2 min 0 min 0,0 UV-I 236 W/m 23,2 km/h (4 Bft)
23.12.2013 12:24 9,2 C 7,2 C 80 % 1013,5 hPa 0,0 l/m 2 min 0 min 0,0 UV-I 220 W/m 12,9 km/h (3 Bft)
23.12.2013 12:26 9,3 C 7,2 C 80 % 1013,5 hPa 0,0 l/m 2 min 0 min 0,0 UV-I 165 W/m 12,9 km/h (3 Bft)
23.12.2013 12:28 9,3 C 7,2 C 79 % 1013,4 hPa 0,0 l/m 0 min 0 min 0,0 UV-I 146 W/m 23,2 km/h (4 Bft)
23.12.2013 12:30 9,3 C 7,2 C 80 % 1013,3 hPa 0,0 l/m 0 min 0 min 0,0 UV-I 128 W/m 23,2 km/h (4 Bft)
23.12.2013 12:32 9,3 C 7,2 C 79 % 1013,3 hPa 0,0 l/m 0 min 0 min 0,0 UV-I 116 W/m 20,6 km/h (4 Bft)
23.12.2013 12:34 9,2 C 7,2 C 79 % 1013,3 hPa 0,0 l/m 0 min 0 min 0,0 UV-I 123 W/m 12,9 km/h (3 Bft)
23.12.2013 12:36 9,2 C 7,2 C 79 % 1013,2 hPa 0,0 l/m 0 min 0 min 0,0 UV-I 109 W/m 15,4 km/h (3 Bft)
23.12.2013 12:38 9,2 C 7,2 C 80 % 1013,3 hPa 0,0 l/m 0 min 0 min 0,0 UV-I 137 W/m 25,7 km/h (4 Bft)
23.12.2013 12:40 9,2 C 7,2 C 79 % 1013,0 hPa 0,0 l/m 2 min 0 min 0,0 UV-I 162 W/m 15,4 km/h (3 Bft)
23.12.2013 12:42 9,2 C 7,2 C 80 % 1013,0 hPa 0,0 l/m 2 min 0 min 0,0 UV-I 167 W/m 12,9 km/h (3 Bft)
23.12.2013 12:44 9,3 C 7,2 C 80 % 1013,0 hPa 0,0 l/m 0 min 0 min 0,0 UV-I 144 W/m 15,4 km/h (3 Bft)
23.12.2013 12:46 9,3 C 7,8 C 79 % 1012,9 hPa 0,0 l/m 2 min 0 min 0,0 UV-I 156 W/m 28,3 km/h (4 Bft)
23.12.2013 12:48 9,3 C 7,8 C 79 % 1012,8 hPa 0,0 l/m 0 min 0 min 0,0 UV-I 146 W/m 18,0 km/h (3 Bft)
23.12.2013 12:50 9,4 C 7,8 C 79 % 1012,8 hPa 0,0 l/m 0 min 0 min 0,0 UV-I 137 W/m 28,3 km/h (4 Bft)
23.12.2013 12:52 9,4 C 7,8 C 79 % 1012,8 hPa 0,0 l/m 0 min 0 min 0,0 UV-I 121 W/m 23,2 km/h (4 Bft)
23.12.2013 12:54 9,3 C 7,8 C 79 % 1012,7 hPa 0,0 l/m 0 min 0 min 0,0 UV-I 134 W/m 18,0 km/h (3 Bft)
23.12.2013 12:56 9,3 C 7,8 C 79 % 1012,6 hPa 0,0 l/m 0 min 0 min 0,0 UV-I 142 W/m 20,6 km/h (4 Bft)
23.12.2013 12:58 9,4 C 7,8 C 79 % 1012,5 hPa 0,0 l/m 0 min 0 min 0,0 UV-I 135 W/m 18,0 km/h (3 Bft)
23.12.2013 13:00 9,4 C 7,8 C 79 % 1012,5 hPa 0,0 l/m 2 min 0 min 0,0 UV-I 153 W/m 12,9 km/h (3 Bft)
23.12.2013 13:02 9,4 C 7,8 C 79 % 1012,4 hPa 0,0 l/m 2 min 0 min 0,0 UV-I 156 W/m 10,3 km/h (2 Bft)
23.12.2013 13:04 9,5 C 7,8 C 79 % 1012,3 hPa 0,0 l/m 2 min 0 min 0,0 UV-I 243 W/m 20,6 km/h (4 Bft)
23.12.2013 13:06 9,6 C 8,3 C 79 % 1012,2 hPa 0,0 l/m 2 min 0 min 0,0 UV-I 278 W/m 12,9 km/h (3 Bft)
23.12.2013 13:08 9,8 C 8,3 C 79 % 1012,4 hPa 0,0 l/m 2 min 0 min 0,0 UV-I 276 W/m 10,3 km/h (2 Bft)
23.12.2013 13:10 9,9 C 8,3 C 78 % 1012,1 hPa 0,0 l/m 2 min 0 min 0,0 UV-I 292 W/m 18,0 km/h (3 Bft)
23.12.2013 13:12 9,9 C 8,3 C 77 % 1012,1 hPa 0,0 l/m 2 min 0 min 0,0 UV-I 185 W/m 15,4 km/h (3 Bft)
23.12.2013 13:14 10,0 C 8,3 C 78 % 1012,1 hPa 0,0 l/m 2 min 0 min 0,0 UV-I 258 W/m 25,7 km/h (4 Bft)
23.12.2013 13:16 10,0 C 8,9 C 78 % 1012,1 hPa 0,0 l/m 2 min 0 min 0,0 UV-I 257 W/m 18,0 km/h (3 Bft)
23.12.2013 13:18 10,1 C 8,9 C 77 % 1012,1 hPa 0,0 l/m 2 min 0 min 0,0 UV-I 223 W/m 23,2 km/h (4 Bft)
23.12.2013 13:20 10,1 C 8,9 C 77 % 1012,1 hPa 0,0 l/m 2 min 0 min 0,0 UV-I 178 W/m 23,2 km/h (4 Bft)
23.12.2013 13:22 10,1 C 8,3 C 77 % 1011,9 hPa 0,0 l/m 2 min 0 min 0,0 UV-I 167 W/m 12,9 km/h (3 Bft)
23.12.2013 13:24 10,1 C 8,3 C 77 % 1011,9 hPa 0,0 l/m 0 min 0 min 0,0 UV-I 88 W/m 15,4 km/h (3 Bft)
23.12.2013 13:26 10,0 C 8,3 C 77 % 1012,0 hPa 0,0 l/m 0 min 0 min 0,0 UV-I 72 W/m 25,7 km/h (4 Bft)
23.12.2013 13:28 9,9 C 8,3 C 77 % 1012,0 hPa 0,0 l/m 0 min 0 min 0,0 UV-I 53 W/m 18,0 km/h (3 Bft)
23.12.2013 13:30 9,9 C 8,3 C 77 % 1011,9 hPa 0,0 l/m 0 min 0 min 0,0 UV-I 51 W/m 18,0 km/h (3 Bft)
23.12.2013 13:32 9,9 C 8,3 C 78 % 1011,8 hPa 0,0 l/m 0 min 0 min 0,0 UV-I 60 W/m 12,9 km/h (3 Bft)
23.12.2013 13:34 9,8 C 8,3 C 78 % 1011,8 hPa 0,0 l/m 0 min 0 min 0,0 UV-I 60 W/m 20,6 km/h (4 Bft)
23.12.2013 13:36 9,8 C 8,3 C 78 % 1011,7 hPa 0,0 l/m 0 min 0 min 0,0 UV-I 56 W/m 15,4 km/h (3 Bft)
23.12.2013 13:38 9,8 C 8,3 C 78 % 1011,6 hPa 0,0 l/m 0 min 0 min 0,0 UV-I 56 W/m 18,0 km/h (3 Bft)
23.12.2013 13:40 9,8 C 8,3 C 78 % 1011,5 hPa 0,0 l/m 0 min 0 min 0,0 UV-I 58 W/m 18,0 km/h (3 Bft)
23.12.2013 13:42 9,8 C 8,3 C 78 % 1011,5 hPa 0,0 l/m 0 min 0 min 0,0 UV-I 83 W/m 20,6 km/h (4 Bft)
23.12.2013 13:44 9,8 C 8,3 C 78 % 1011,4 hPa 0,0 l/m 0 min 0 min 0,0 UV-I 77 W/m 12,9 km/h (3 Bft)
23.12.2013 13:46 9,8 C 8,3 C 78 % 1011,4 hPa 0,0 l/m 0 min 0 min 0,0 UV-I 98 W/m 10,3 km/h (2 Bft)
23.12.2013 13:48 9,8 C 8,3 C 78 % 1011,3 hPa 0,0 l/m 0 min 0 min 0,0 UV-I 83 W/m 12,9 km/h (3 Bft)
23.12.2013 13:50 9,8 C 8,3 C 78 % 1011,3 hPa 0,0 l/m 0 min 0 min 0,0 UV-I 74 W/m 18,0 km/h (3 Bft)
23.12.2013 13:52 9,8 C 8,3 C 78 % 1011,3 hPa 0,0 l/m 0 min 0 min 0,0 UV-I 63 W/m 12,9 km/h (3 Bft)
23.12.2013 13:54 9,8 C 8,3 C 78 % 1011,2 hPa 0,0 l/m 0 min 0 min 0,0 UV-I 76 W/m 12,9 km/h (3 Bft)
23.12.2013 13:56 9,8 C 8,3 C 79 % 1011,2 hPa 0,0 l/m 0 min 0 min 0,0 UV-I 83 W/m 5,1 km/h (1 Bft)
23.12.2013 13:58 9,8 C 8,3 C 79 % 1011,1 hPa 0,0 l/m 0 min 0 min 0,0 UV-I 77 W/m 18,0 km/h (3 Bft)
23.12.2013 14:00 9,8 C 8,3 C 79 % 1011,1 hPa 0,0 l/m 0 min 0 min 0,0 UV-I 79 W/m 12,9 km/h (3 Bft)
23.12.2013 14:02 9,8 C 8,3 C 79 % 1011,0 hPa 0,0 l/m 0 min 0 min 0,0 UV-I 84 W/m 15,4 km/h (3 Bft)
23.12.2013 14:04 9,8 C 8,3 C 79 % 1010,9 hPa 0,0 l/m 0 min 0 min 0,0 UV-I 109 W/m 15,4 km/h (3 Bft)
23.12.2013 14:06 9,9 C 8,3 C 79 % 1010,8 hPa 0,0 l/m 2 min 0 min 0,0 UV-I 139 W/m 23,2 km/h (4 Bft)
23.12.2013 14:08 9,9 C 8,3 C 79 % 1010,7 hPa 0,0 l/m 0 min 0 min 0,0 UV-I 118 W/m 12,9 km/h (3 Bft)
23.12.2013 14:10 9,9 C 8,3 C 79 % 1010,7 hPa 0,0 l/m 0 min 0 min 0,0 UV-I 105 W/m 23,2 km/h (4 Bft)
23.12.2013 14:12 9,9 C 8,3 C 79 % 1010,7 hPa 0,0 l/m 0 min 0 min 0,0 UV-I 100 W/m 20,6 km/h (4 Bft)
23.12.2013 14:14 9,9 C 8,3 C 78 % 1010,7 hPa 0,0 l/m 0 min 0 min 0,0 UV-I 111 W/m 12,9 km/h (3 Bft)
23.12.2013 14:16 9,9 C 8,3 C 79 % 1010,6 hPa 0,0 l/m 0 min 0 min 0,0 UV-I 97 W/m 15,4 km/h (3 Bft)
23.12.2013 14:18 9,9 C 8,3 C 78 % 1010,6 hPa 0,0 l/m 0 min 0 min 0,0 UV-I 95 W/m 10,3 km/h (2 Bft)
23.12.2013 14:20 9,9 C 8,3 C 79 % 1010,5 hPa 0,0 l/m 0 min 0 min 0,0 UV-I 90 W/m 12,9 km/h (3 Bft)
23.12.2013 14:22 9,9 C 8,3 C 79 % 1010,5 hPa 0,0 l/m 0 min 0 min 0,0 UV-I 69 W/m 12,9 km/h (3 Bft)
23.12.2013 14:24 9,9 C 8,3 C 79 % 1010,5 hPa 0,0 l/m 0 min 0 min 0,0 UV-I 70 W/m 23,2 km/h (4 Bft)
23.12.2013 14:26 9,9 C 8,3 C 78 % 1010,5 hPa 0,0 l/m 0 min 0 min 0,0 UV-I 69 W/m 25,7 km/h (4 Bft)
23.12.2013 14:28 10,0 C 8,3 C 78 % 1010,4 hPa 0,0 l/m 0 min 0 min 0,0 UV-I 72 W/m 15,4 km/h (3 Bft)
23.12.2013 14:30 10,0 C 8,3 C 79 % 1010,4 hPa 0,0 l/m 0 min 0 min 0,0 UV-I 79 W/m 20,6 km/h (4 Bft)
23.12.2013 14:32 10,0 C 8,3 C 79 % 1010,2 hPa 0,0 l/m 0 min 0 min 0,0 UV-I 79 W/m 15,4 km/h (3 Bft)
23.12.2013 14:34 10,0 C 8,3 C 79 % 1010,2 hPa 0,0 l/m 0 min 0 min 0,0 UV-I 74 W/m 20,6 km/h (4 Bft)
23.12.2013 14:36 10,0 C 8,3 C 79 % 1010,2 hPa 0,0 l/m 0 min 0 min 0,0 UV-I 72 W/m 20,6 km/h (4 Bft)
23.12.2013 14:38 10,0 C 8,3 C 79 % 1010,1 hPa 0,0 l/m 0 min 0 min 0,0 UV-I 72 W/m 15,4 km/h (3 Bft)
23.12.2013 14:40 10,0 C 8,3 C 79 % 1010,1 hPa 0,0 l/m 0 min 0 min 0,0 UV-I 76 W/m 12,9 km/h (3 Bft)
23.12.2013 14:42 10,0 C 8,3 C 79 % 1010,1 hPa 0,0 l/m 0 min 0 min 0,0 UV-I 70 W/m 28,3 km/h (4 Bft)
23.12.2013 14:44 10,0 C 8,3 C 79 % 1009,9 hPa 0,0 l/m 0 min 0 min 0,0 UV-I 65 W/m 15,4 km/h (3 Bft)
23.12.2013 14:46 10,0 C 8,3 C 79 % 1009,9 hPa 0,0 l/m 0 min 0 min 0,0 UV-I 65 W/m 33,5 km/h (5 Bft)
23.12.2013 14:48 9,9 C 8,3 C 79 % 1009,8 hPa 0,0 l/m 0 min 0 min 0,0 UV-I 69 W/m 23,2 km/h (4 Bft)
23.12.2013 14:50 9,9 C 8,3 C 79 % 1009,6 hPa 0,0 l/m 0 min 0 min 0,0 UV-I 70 W/m 28,3 km/h (4 Bft)
23.12.2013 14:52 10,0 C 8,3 C 79 % 1009,5 hPa 0,0 l/m 0 min 0 min 0,0 UV-I 70 W/m 18,0 km/h (3 Bft)
23.12.2013 14:54 10,0 C 8,3 C 80 % 1009,5 hPa 0,0 l/m 0 min 0 min 0,0 UV-I 70 W/m 18,0 km/h (3 Bft)
23.12.2013 14:56 10,0 C 8,3 C 79 % 1009,4 hPa 0,0 l/m 0 min 0 min 0,0 UV-I 67 W/m 30,9 km/h (5 Bft)
23.12.2013 14:58 10,0 C 8,3 C 79 % 1009,5 hPa 0,0 l/m 0 min 0 min 0,0 UV-I 62 W/m 41,2 km/h (6 Bft)
23.12.2013 15:00 10,1 C 8,3 C 79 % 1009,5 hPa 0,0 l/m 0 min 0 min 0,0 UV-I 53 W/m 18,0 km/h (3 Bft)
23.12.2013 15:02 10,0 C 8,3 C 79 % 1009,5 hPa 0,0 l/m 0 min 0 min 0,0 UV-I 42 W/m 20,6 km/h (4 Bft)
23.12.2013 15:04 10,1 C 8,3 C 79 % 1009,4 hPa 0,0 l/m 0 min 0 min 0,0 UV-I 42 W/m 25,7 km/h (4 Bft)
23.12.2013 15:06 10,1 C 8,3 C 79 % 1009,3 hPa 0,0 l/m 0 min 0 min 0,0 UV-I 47 W/m 15,4 km/h (3 Bft)
23.12.2013 15:08 10,1 C 8,3 C 79 % 1009,1 hPa 0,0 l/m 0 min 0 min 0,0 UV-I 51 W/m 20,6 km/h (4 Bft)
23.12.2013 15:10 10,1 C 8,3 C 79 % 1009,1 hPa 0,0 l/m 0 min 0 min 0,0 UV-I 49 W/m 12,9 km/h (3 Bft)
23.12.2013 15:12 10,1 C 8,3 C 79 % 1008,9 hPa 0,0 l/m 0 min 0 min 0,0 UV-I 49 W/m 12,9 km/h (3 Bft)
23.12.2013 15:14 10,1 C 8,3 C 80 % 1008,9 hPa 0,0 l/m 0 min 0 min 0,0 UV-I 49 W/m 28,3 km/h (4 Bft)
23.12.2013 15:16 10,1 C 8,3 C 80 % 1008,9 hPa 0,0 l/m 0 min 0 min 0,0 UV-I 49 W/m 20,6 km/h (4 Bft)
23.12.2013 15:18 10,1 C 8,3 C 79 % 1008,9 hPa 0,0 l/m 0 min 0 min 0,0 UV-I 53 W/m 15,4 km/h (3 Bft)
23.12.2013 15:20 10,1 C 8,3 C 79 % 1008,8 hPa 0,0 l/m 0 min 0 min 0,0 UV-I 49 W/m 18,0 km/h (3 Bft)
23.12.2013 15:22 10,1 C 8,3 C 79 % 1008,9 hPa 0,0 l/m 0 min 0 min 0,0 UV-I 42 W/m 12,9 km/h (3 Bft)
23.12.2013 15:24 10,1 C 8,3 C 79 % 1008,8 hPa 0,0 l/m 0 min 0 min 0,0 UV-I 37 W/m 15,4 km/h (3 Bft)
23.12.2013 15:26 10,1 C 8,3 C 79 % 1008,8 hPa 0,0 l/m 0 min 0 min 0,0 UV-I 30 W/m 18,0 km/h (3 Bft)
23.12.2013 15:28 10,1 C 8,3 C 79 % 1008,8 hPa 0,0 l/m 0 min 0 min 0,0 UV-I 26 W/m 10,3 km/h (2 Bft)
23.12.2013 15:30 10,1 C 8,3 C 80 % 1008,8 hPa 0,0 l/m 0 min 0 min 0,0 UV-I 25 W/m 18,0 km/h (3 Bft)
23.12.2013 15:32 10,1 C 8,3 C 80 % 1008,8 hPa 0,0 l/m 0 min 0 min 0,0 UV-I 25 W/m 18,0 km/h (3 Bft)
23.12.2013 15:34 10,1 C 8,3 C 79 % 1008,8 hPa 0,0 l/m 0 min 0 min 0,0 UV-I 21 W/m 38,6 km/h (5 Bft)
23.12.2013 15:36 10,2 C 8,3 C 79 % 1008,7 hPa 0,0 l/m 0 min 0 min 0,0 UV-I 18 W/m 10,3 km/h (2 Bft)
23.12.2013 15:38 10,2 C 8,3 C 79 % 1008,7 hPa 0,0 l/m 0 min 0 min 0,0 UV-I 16 W/m 20,6 km/h (4 Bft)
23.12.2013 15:40 10,2 C 8,3 C 79 % 1008,7 hPa 0,0 l/m 0 min 0 min 0,0 UV-I 12 W/m 25,7 km/h (4 Bft)
23.12.2013 15:42 10,2 C 8,3 C 79 % 1008,6 hPa 0,0 l/m 0 min 0 min 0,0 UV-I 9 W/m 12,9 km/h (3 Bft)
23.12.2013 15:44 10,2 C 8,3 C 79 % 1008,6 hPa 0,0 l/m 0 min 0 min 0,0 UV-I 7 W/m 18,0 km/h (3 Bft)
23.12.2013 15:46 10,2 C 8,3 C 79 % 1008,6 hPa 0,0 l/m 0 min 0 min 0,0 UV-I 7 W/m 23,2 km/h (4 Bft)
23.12.2013 15:48 10,2 C 8,3 C 79 % 1008,5 hPa 0,0 l/m 0 min 0 min 0,0 UV-I 7 W/m 20,6 km/h (4 Bft)
23.12.2013 15:50 10,2 C 8,3 C 79 % 1008,5 hPa 0,0 l/m 0 min 0 min 0,0 UV-I 7 W/m 18,0 km/h (3 Bft)
23.12.2013 15:52 10,2 C 8,3 C 79 % 1008,5 hPa 0,0 l/m 0 min 0 min 0,0 UV-I 9 W/m 18,0 km/h (3 Bft)
23.12.2013 15:54 10,2 C 8,3 C 79 % 1008,4 hPa 0,0 l/m 0 min 0 min 0,0 UV-I 7 W/m 7,7 km/h (2 Bft)
23.12.2013 15:56 10,2 C 8,3 C 79 % 1008,5 hPa 0,0 l/m 0 min 0 min 0,0 UV-I 9 W/m 20,6 km/h (4 Bft)
23.12.2013 15:58 10,2 C 8,3 C 79 % 1008,3 hPa 0,0 l/m 0 min 0 min 0,0 UV-I 11 W/m 10,3 km/h (2 Bft)
23.12.2013 16:00 10,2 C 8,3 C 79 % 1008,2 hPa 0,0 l/m 0 min 0 min 0,0 UV-I 12 W/m 18,0 km/h (3 Bft)
23.12.2013 16:02 10,2 C 8,3 C 79 % 1008,3 hPa 0,0 l/m 0 min 0 min 0,0 UV-I 11 W/m 20,6 km/h (4 Bft)
23.12.2013 16:04 10,2 C 8,3 C 79 % 1008,3 hPa 0,0 l/m 0 min 0 min 0,0 UV-I 9 W/m 20,6 km/h (4 Bft)
23.12.2013 16:06 10,2 C 8,3 C 80 % 1008,2 hPa 0,0 l/m 0 min 0 min 0,0 UV-I 11 W/m 15,4 km/h (3 Bft)
23.12.2013 16:08 10,2 C 8,3 C 80 % 1008,2 hPa 0,0 l/m 0 min 0 min 0,0 UV-I 9 W/m 23,2 km/h (4 Bft)
23.12.2013 16:10 10,2 C 8,3 C 80 % 1008,1 hPa 0,0 l/m 0 min 0 min 0,0 UV-I 9 W/m 23,2 km/h (4 Bft)
23.12.2013 16:12 10,2 C 8,3 C 80 % 1008,1 hPa 0,0 l/m 0 min 0 min 0,0 UV-I 7 W/m 12,9 km/h (3 Bft)
23.12.2013 16:14 10,2 C 8,3 C 80 % 1008,0 hPa 0,0 l/m 0 min 0 min 0,0 UV-I 7 W/m 15,4 km/h (3 Bft)
23.12.2013 16:16 10,2 C 8,3 C 80 % 1008,0 hPa 0,0 l/m 0 min 0 min 0,0 UV-I 7 W/m 18,0 km/h (3 Bft)
23.12.2013 16:18 10,2 C 8,3 C 80 % 1008,0 hPa 0,0 l/m 0 min 0 min 0,0 UV-I 5 W/m 15,4 km/h (3 Bft)
23.12.2013 16:20 10,2 C 8,3 C 80 % 1008,0 hPa 0,0 l/m 0 min 0 min 0,0 UV-I 5 W/m 15,4 km/h (3 Bft)
23.12.2013 16:22 10,2 C 8,3 C 80 % 1007,9 hPa 0,0 l/m 0 min 0 min 0,0 UV-I 0 W/m 23,2 km/h (4 Bft)
23.12.2013 16:24 10,2 C 8,3 C 80 % 1008,0 hPa 0,0 l/m 0 min 0 min 0,0 UV-I 0 W/m 18,0 km/h (3 Bft)
23.12.2013 16:26 10,2 C 8,3 C 80 % 1007,9 hPa 0,0 l/m 0 min 0 min 0,0 UV-I 0 W/m 18,0 km/h (3 Bft)
23.12.2013 16:28 10,2 C 8,3 C 80 % 1007,9 hPa 0,0 l/m 0 min 0 min 0,0 UV-I 0 W/m 15,4 km/h (3 Bft)
23.12.2013 16:30 10,2 C 8,3 C 80 % 1007,8 hPa 0,0 l/m 0 min 0 min 0,0 UV-I 0 W/m 20,6 km/h (4 Bft)
23.12.2013 16:32 10,2 C 8,3 C 80 % 1007,7 hPa 0,0 l/m 0 min 0 min 0,0 UV-I 0 W/m 18,0 km/h (3 Bft)
23.12.2013 16:34 10,2 C 8,3 C 80 % 1007,7 hPa 0,0 l/m 0 min 0 min 0,0 UV-I 0 W/m 25,7 km/h (4 Bft)
23.12.2013 16:36 10,2 C 8,3 C 81 % 1007,8 hPa 0,0 l/m 0 min 0 min 0,0 UV-I 0 W/m 12,9 km/h (3 Bft)
23.12.2013 16:38 10,2 C 8,3 C 81 % 1007,8 hPa 0,0 l/m 0 min 0 min 0,0 UV-I 0 W/m 20,6 km/h (4 Bft)
23.12.2013 16:40 10,2 C 8,3 C 81 % 1007,8 hPa 0,0 l/m 0 min 0 min 0,0 UV-I 0 W/m 28,3 km/h (4 Bft)
23.12.2013 16:42 10,2 C 8,3 C 81 % 1007,7 hPa 0,0 l/m 0 min 0 min 0,0 UV-I 0 W/m 15,4 km/h (3 Bft)
23.12.2013 16:44 10,2 C 8,3 C 81 % 1007,8 hPa 0,0 l/m 0 min 0 min 0,0 UV-I 0 W/m 18,0 km/h (3 Bft)
23.12.2013 16:46 10,2 C 8,3 C 81 % 1007,8 hPa 0,0 l/m 0 min 0 min 0,0 UV-I 0 W/m 10,3 km/h (2 Bft)
23.12.2013 16:48 10,1 C 8,3 C 81 % 1007,6 hPa 0,0 l/m 0 min 0 min 0,0 UV-I 0 W/m 30,9 km/h (5 Bft)
23.12.2013 16:50 10,2 C 8,3 C 81 % 1007,6 hPa 0,0 l/m 0 min 0 min 0,0 UV-I 0 W/m 18,0 km/h (3 Bft)
23.12.2013 16:52 10,1 C 8,3 C 81 % 1007,6 hPa 0,0 l/m 0 min 0 min 0,0 UV-I 0 W/m 20,6 km/h (4 Bft)
23.12.2013 16:54 10,1 C 8,3 C 81 % 1007,5 hPa 0,0 l/m 0 min 0 min 0,0 UV-I 0 W/m 18,0 km/h (3 Bft)
23.12.2013 16:56 10,1 C 8,3 C 81 % 1007,5 hPa 0,0 l/m 0 min 0 min 0,0 UV-I 0 W/m 10,3 km/h (2 Bft)
23.12.2013 16:58 10,1 C 8,3 C 81 % 1007,3 hPa 0,0 l/m 0 min 0 min 0,0 UV-I 0 W/m 18,0 km/h (3 Bft)
23.12.2013 17:00 10,1 C 8,3 C 81 % 1007,4 hPa 0,0 l/m 0 min 0 min 0,0 UV-I 0 W/m 23,2 km/h (4 Bft)
23.12.2013 17:02 10,1 C 8,3 C 81 % 1007,4 hPa 0,0 l/m 0 min 0 min 0,0 UV-I 0 W/m 15,4 km/h (3 Bft)
23.12.2013 17:04 10,1 C 8,3 C 81 % 1007,3 hPa 0,0 l/m 0 min 0 min 0,0 UV-I 0 W/m 33,5 km/h (5 Bft)
23.12.2013 17:06 10,1 C 8,3 C 81 % 1007,4 hPa 0,0 l/m 0 min 0 min 0,0 UV-I 0 W/m 23,2 km/h (4 Bft)
23.12.2013 17:08 10,2 C 8,3 C 81 % 1007,5 hPa 0,0 l/m 0 min 0 min 0,0 UV-I 0 W/m 18,0 km/h (3 Bft)
23.12.2013 17:10 10,1 C 8,3 C 81 % 1007,5 hPa 0,0 l/m 0 min 0 min 0,0 UV-I 0 W/m 25,7 km/h (4 Bft)
23.12.2013 17:12 10,2 C 8,3 C 81 % 1007,4 hPa 0,0 l/m 0 min 0 min 0,0 UV-I 0 W/m 28,3 km/h (4 Bft)
23.12.2013 17:14 10,2 C 8,3 C 81 % 1007,3 hPa 0,0 l/m 0 min 0 min 0,0 UV-I 0 W/m 12,9 km/h (3 Bft)
23.12.2013 17:16 10,2 C 8,3 C 81 % 1007,2 hPa 0,0 l/m 0 min 0 min 0,0 UV-I 0 W/m 28,3 km/h (4 Bft)
23.12.2013 17:18 10,2 C 8,3 C 81 % 1007,2 hPa 0,0 l/m 0 min 0 min 0,0 UV-I 0 W/m 25,7 km/h (4 Bft)
23.12.2013 17:20 10,2 C 8,3 C 81 % 1007,1 hPa 0,0 l/m 0 min 0 min 0,0 UV-I 0 W/m 12,9 km/h (3 Bft)
23.12.2013 17:22 10,2 C 8,3 C 81 % 1007,1 hPa 0,0 l/m 0 min 0 min 0,0 UV-I 0 W/m 20,6 km/h (4 Bft)
23.12.2013 17:24 10,2 C 8,3 C 81 % 1007,0 hPa 0,0 l/m 0 min 0 min 0,0 UV-I 0 W/m 18,0 km/h (3 Bft)
23.12.2013 17:26 10,2 C 8,3 C 81 % 1006,9 hPa 0,0 l/m 0 min 0 min 0,0 UV-I 0 W/m 15,4 km/h (3 Bft)
23.12.2013 17:28 10,2 C 8,3 C 81 % 1007,0 hPa 0,0 l/m 0 min 0 min 0,0 UV-I 0 W/m 25,7 km/h (4 Bft)
23.12.2013 17:30 10,2 C 8,3 C 81 % 1006,9 hPa 0,0 l/m 0 min 0 min 0,0 UV-I 0 W/m 20,6 km/h (4 Bft)
23.12.2013 17:32 10,2 C 8,3 C 81 % 1006,9 hPa 0,0 l/m 0 min 0 min 0,0 UV-I 0 W/m 28,3 km/h (4 Bft)
23.12.2013 17:34 10,2 C 8,3 C 81 % 1006,7 hPa 0,0 l/m 0 min 0 min 0,0 UV-I 0 W/m 20,6 km/h (4 Bft)
23.12.2013 17:36 10,2 C 8,3 C 81 % 1006,7 hPa 0,0 l/m 0 min 0 min 0,0 UV-I 0 W/m 18,0 km/h (3 Bft)
23.12.2013 17:38 10,2 C 8,3 C 81 % 1006,7 hPa 0,0 l/m 0 min 0 min 0,0 UV-I 0 W/m 25,7 km/h (4 Bft)
23.12.2013 17:40 10,2 C 8,3 C 81 % 1006,6 hPa 0,0 l/m 0 min 0 min 0,0 UV-I 0 W/m 18,0 km/h (3 Bft)
23.12.2013 17:42 10,2 C 8,3 C 81 % 1006,5 hPa 0,0 l/m 0 min 0 min 0,0 UV-I 0 W/m 20,6 km/h (4 Bft)
23.12.2013 17:44 10,2 C 8,3 C 81 % 1006,3 hPa 0,0 l/m 0 min 0 min 0,0 UV-I 0 W/m 30,9 km/h (5 Bft)
23.12.2013 17:46 10,2 C 8,3 C 81 % 1006,1 hPa 0,0 l/m 0 min 0 min 0,0 UV-I 0 W/m 23,2 km/h (4 Bft)
23.12.2013 17:48 10,2 C 8,3 C 81 % 1006,1 hPa 0,0 l/m 0 min 0 min 0,0 UV-I 0 W/m 25,7 km/h (4 Bft)
23.12.2013 17:50 10,2 C 8,3 C 81 % 1006,0 hPa 0,0 l/m 0 min 0 min 0,0 UV-I 0 W/m 30,9 km/h (5 Bft)
23.12.2013 17:52 10,2 C 8,3 C 81 % 1005,9 hPa 0,0 l/m 0 min 0 min 0,0 UV-I 0 W/m 12,9 km/h (3 Bft)
23.12.2013 17:54 10,2 C 8,3 C 81 % 1005,9 hPa 0,0 l/m 0 min 0 min 0,0 UV-I 0 W/m 25,7 km/h (4 Bft)
23.12.2013 17:56 10,2 C 8,3 C 81 % 1005,8 hPa 0,0 l/m 0 min 0 min 0,0 UV-I 0 W/m 18,0 km/h (3 Bft)
23.12.2013 17:58 10,2 C 8,3 C 81 % 1005,8 hPa 0,0 l/m 0 min 0 min 0,0 UV-I 0 W/m 18,0 km/h (3 Bft)
23.12.2013 18:00 10,2 C 8,3 C 81 % 1005,8 hPa 0,0 l/m 0 min 0 min 0,0 UV-I 0 W/m 23,2 km/h (4 Bft)
23.12.2013 18:02 10,2 C 8,3 C 81 % 1005,8 hPa 0,0 l/m 0 min 0 min 0,0 UV-I 0 W/m 25,7 km/h (4 Bft)
23.12.2013 18:04 10,2 C 8,3 C 81 % 1005,5 hPa 0,0 l/m 0 min 0 min 0,0 UV-I 0 W/m 20,6 km/h (4 Bft)
23.12.2013 18:06 10,2 C 8,3 C 81 % 1005,6 hPa 0,0 l/m 0 min 0 min 0,0 UV-I 0 W/m 20,6 km/h (4 Bft)
23.12.2013 18:08 10,2 C 8,3 C 81 % 1005,5 hPa 0,0 l/m 0 min 0 min 0,0 UV-I 0 W/m 28,3 km/h (4 Bft)
23.12.2013 18:10 10,2 C 8,3 C 81 % 1005,4 hPa 0,0 l/m 0 min 0 min 0,0 UV-I 0 W/m 23,2 km/h (4 Bft)
23.12.2013 18:12 10,2 C 8,3 C 81 % 1005,4 hPa 0,0 l/m 0 min 0 min 0,0 UV-I 0 W/m 25,7 km/h (4 Bft)
23.12.2013 18:14 10,2 C 8,3 C 81 % 1005,5 hPa 0,0 l/m 0 min 0 min 0,0 UV-I 0 W/m 36,0 km/h (5 Bft)
23.12.2013 18:16 10,2 C 8,9 C 81 % 1005,4 hPa 0,0 l/m 0 min 0 min 0,0 UV-I 0 W/m 30,9 km/h (5 Bft)
23.12.2013 18:18 10,2 C 8,9 C 81 % 1005,4 hPa 0,0 l/m 0 min 0 min 0,0 UV-I 0 W/m 15,4 km/h (3 Bft)
23.12.2013 18:20 10,3 C 8,9 C 81 % 1005,5 hPa 0,0 l/m 0 min 0 min 0,0 UV-I 0 W/m 23,2 km/h (4 Bft)
23.12.2013 18:22 10,3 C 8,9 C 81 % 1005,3 hPa 0,0 l/m 0 min 0 min 0,0 UV-I 0 W/m 25,7 km/h (4 Bft)
23.12.2013 18:24 10,3 C 8,9 C 81 % 1005,5 hPa 0,0 l/m 0 min 0 min 0,0 UV-I 0 W/m 18,0 km/h (3 Bft)
23.12.2013 18:26 10,3 C 8,9 C 80 % 1005,3 hPa 0,0 l/m 0 min 0 min 0,0 UV-I 0 W/m 20,6 km/h (4 Bft)
23.12.2013 18:28 10,4 C 8,9 C 80 % 1005,3 hPa 0,0 l/m 0 min 0 min 0,0 UV-I 0 W/m 15,4 km/h (3 Bft)
23.12.2013 18:30 10,4 C 8,9 C 80 % 1005,2 hPa 0,0 l/m 0 min 0 min 0,0 UV-I 0 W/m 30,9 km/h (5 Bft)
23.12.2013 18:32 10,4 C 8,9 C 80 % 1005,2 hPa 0,0 l/m 0 min 0 min 0,0 UV-I 0 W/m 15,4 km/h (3 Bft)
23.12.2013 18:34 10,4 C 8,9 C 80 % 1005,1 hPa 0,0 l/m 0 min 0 min 0,0 UV-I 0 W/m 23,2 km/h (4 Bft)
23.12.2013 18:36 10,4 C 8,9 C 80 % 1005,1 hPa 0,0 l/m 0 min 0 min 0,0 UV-I 0 W/m 12,9 km/h (3 Bft)
23.12.2013 18:38 10,4 C 8,9 C 80 % 1005,0 hPa 0,0 l/m 0 min 0 min 0,0 UV-I 0 W/m 18,0 km/h (3 Bft)
23.12.2013 18:40 10,4 C 8,9 C 80 % 1005,1 hPa 0,0 l/m 0 min 0 min 0,0 UV-I 0 W/m 18,0 km/h (3 Bft)
23.12.2013 18:42 10,4 C 8,9 C 80 % 1004,9 hPa 0,0 l/m 0 min 0 min 0,0 UV-I 0 W/m 23,2 km/h (4 Bft)
23.12.2013 18:44 10,4 C 8,9 C 80 % 1004,8 hPa 0,0 l/m 0 min 0 min 0,0 UV-I 0 W/m 30,9 km/h (5 Bft)
23.12.2013 18:46 10,4 C 8,9 C 80 % 1004,9 hPa 0,0 l/m 0 min 0 min 0,0 UV-I 0 W/m 25,7 km/h (4 Bft)
23.12.2013 18:48 10,4 C 8,3 C 80 % 1004,8 hPa 0,0 l/m 0 min 0 min 0,0 UV-I 0 W/m 28,3 km/h (4 Bft)
23.12.2013 18:50 10,4 C 8,3 C 80 % 1004,8 hPa 0,0 l/m 0 min 0 min 0,0 UV-I 0 W/m 18,0 km/h (3 Bft)
23.12.2013 18:52 10,4 C 8,3 C 80 % 1004,7 hPa 0,0 l/m 0 min 0 min 0,0 UV-I 0 W/m 25,7 km/h (4 Bft)
23.12.2013 18:54 10,4 C 8,3 C 80 % 1004,7 hPa 0,0 l/m 0 min 0 min 0,0 UV-I 0 W/m 20,6 km/h (4 Bft)
23.12.2013 18:56 10,4 C 8,3 C 80 % 1004,5 hPa 0,0 l/m 0 min 0 min 0,0 UV-I 0 W/m 28,3 km/h (4 Bft)
23.12.2013 18:58 10,4 C 8,3 C 80 % 1004,4 hPa 0,0 l/m 0 min 0 min 0,0 UV-I 0 W/m 28,3 km/h (4 Bft)
23.12.2013 19:00 10,4 C 8,3 C 80 % 1004,4 hPa 0,0 l/m 0 min 0 min 0,0 UV-I 0 W/m 25,7 km/h (4 Bft)
23.12.2013 19:02 10,4 C 8,3 C 80 % 1004,3 hPa 0,0 l/m 0 min 0 min 0,0 UV-I 0 W/m 15,4 km/h (3 Bft)
23.12.2013 19:04 10,4 C 8,3 C 80 % 1004,5 hPa 0,0 l/m 0 min 0 min 0,0 UV-I 0 W/m 33,5 km/h (5 Bft)
23.12.2013 19:06 10,4 C 8,3 C 80 % 1004,2 hPa 0,0 l/m 0 min 0 min 0,0 UV-I 0 W/m 33,5 km/h (5 Bft)
23.12.2013 19:08 10,4 C 8,3 C 80 % 1004,2 hPa 0,0 l/m 0 min 0 min 0,0 UV-I 0 W/m 33,5 km/h (5 Bft)
23.12.2013 19:10 10,4 C 8,9 C 80 % 1004,1 hPa 0,0 l/m 0 min 0 min 0,0 UV-I 0 W/m 33,5 km/h (5 Bft)
23.12.2013 19:12 10,4 C 8,9 C 80 % 1004,0 hPa 0,0 l/m 0 min 0 min 0,0 UV-I 0 W/m 15,4 km/h (3 Bft)
23.12.2013 19:14 10,4 C 8,9 C 80 % 1003,9 hPa 0,0 l/m 0 min 0 min 0,0 UV-I 0 W/m 33,5 km/h (5 Bft)
23.12.2013 19:16 10,4 C 8,9 C 80 % 1003,9 hPa 0,0 l/m 0 min 0 min 0,0 UV-I 0 W/m 18,0 km/h (3 Bft)
23.12.2013 19:18 10,4 C 8,9 C 80 % 1003,8 hPa 0,0 l/m 0 min 0 min 0,0 UV-I 0 W/m 18,0 km/h (3 Bft)
23.12.2013 19:20 10,4 C 8,9 C 80 % 1003,8 hPa 0,0 l/m 0 min 0 min 0,0 UV-I 0 W/m 20,6 km/h (4 Bft)
23.12.2013 19:22 10,4 C 8,9 C 80 % 1003,8 hPa 0,0 l/m 0 min 0 min 0,0 UV-I 0 W/m 36,0 km/h (5 Bft)
23.12.2013 19:24 10,5 C 8,9 C 80 % 1003,8 hPa 0,0 l/m 0 min 0 min 0,0 UV-I 0 W/m 23,2 km/h (4 Bft)
23.12.2013 19:26 10,5 C 8,9 C 80 % 1003,8 hPa 0,0 l/m 0 min 0 min 0,0 UV-I 0 W/m 25,7 km/h (4 Bft)
23.12.2013 19:28 10,6 C 8,9 C 80 % 1003,8 hPa 0,0 l/m 0 min 0 min 0,0 UV-I 0 W/m 20,6 km/h (4 Bft)
23.12.2013 19:30 10,6 C 8,9 C 80 % 1003,6 hPa 0,0 l/m 0 min 0 min 0,0 UV-I 0 W/m 36,0 km/h (5 Bft)
23.12.2013 19:32 10,6 C 8,9 C 80 % 1003,8 hPa 0,0 l/m 0 min 0 min 0,0 UV-I 0 W/m 23,2 km/h (4 Bft)
23.12.2013 19:34 10,6 C 8,9 C 80 % 1003,7 hPa 0,0 l/m 0 min 0 min 0,0 UV-I 0 W/m 15,4 km/h (3 Bft)
23.12.2013 19:36 10,6 C 8,9 C 80 % 1003,7 hPa 0,0 l/m 0 min 0 min 0,0 UV-I 0 W/m 23,2 km/h (4 Bft)
23.12.2013 19:38 10,6 C 8,9 C 80 % 1003,6 hPa 0,0 l/m 0 min 0 min 0,0 UV-I 0 W/m 10,3 km/h (2 Bft)
23.12.2013 19:40 10,6 C 8,9 C 80 % 1003,6 hPa 0,0 l/m 0 min 0 min 0,0 UV-I 0 W/m 23,2 km/h (4 Bft)
23.12.2013 19:42 10,6 C 8,9 C 80 % 1003,6 hPa 0,0 l/m 0 min 0 min 0,0 UV-I 0 W/m 23,2 km/h (4 Bft)
23.12.2013 19:44 10,6 C 8,9 C 80 % 1003,5 hPa 0,0 l/m 0 min 0 min 0,0 UV-I 0 W/m 18,0 km/h (3 Bft)
23.12.2013 19:46 10,6 C 8,9 C 80 % 1003,3 hPa 0,0 l/m 0 min 0 min 0,0 UV-I 0 W/m 33,5 km/h (5 Bft)
23.12.2013 19:48 10,6 C 8,9 C 79 % 1003,4 hPa 0,0 l/m 0 min 0 min 0,0 UV-I 0 W/m 41,2 km/h (6 Bft)
23.12.2013 19:50 10,6 C 8,3 C 79 % 1003,3 hPa 0,0 l/m 0 min 0 min 0,0 UV-I 0 W/m 25,7 km/h (4 Bft)
23.12.2013 19:52 10,6 C 8,3 C 79 % 1003,3 hPa 0,0 l/m 0 min 0 min 0,0 UV-I 0 W/m 25,7 km/h (4 Bft)
23.12.2013 19:54 10,6 C 8,3 C 79 % 1003,3 hPa 0,0 l/m 0 min 0 min 0,0 UV-I 0 W/m 30,9 km/h (5 Bft)
23.12.2013 19:56 10,6 C 8,3 C 79 % 1003,2 hPa 0,0 l/m 0 min 0 min 0,0 UV-I 0 W/m 23,2 km/h (4 Bft)
23.12.2013 19:58 10,6 C 8,9 C 79 % 1003,2 hPa 0,0 l/m 0 min 0 min 0,0 UV-I 0 W/m 36,0 km/h (5 Bft)
23.12.2013 20:00 10,6 C 8,9 C 79 % 1003,1 hPa 0,0 l/m 0 min 0 min 0,0 UV-I 0 W/m 23,2 km/h (4 Bft)
23.12.2013 20:02 10,6 C 8,9 C 79 % 1003,1 hPa 0,0 l/m 0 min 0 min 0,0 UV-I 0 W/m 18,0 km/h (3 Bft)
23.12.2013 20:04 10,6 C 8,3 C 79 % 1003,0 hPa 0,0 l/m 0 min 0 min 0,0 UV-I 0 W/m 15,4 km/h (3 Bft)
23.12.2013 20:06 10,6 C 8,9 C 79 % 1003,0 hPa 0,0 l/m 0 min 0 min 0,0 UV-I 0 W/m 28,3 km/h (4 Bft)
23.12.2013 20:08 10,6 C 8,3 C 79 % 1002,9 hPa 0,0 l/m 0 min 0 min 0,0 UV-I 0 W/m 30,9 km/h (5 Bft)
23.12.2013 20:10 10,6 C 8,3 C 79 % 1002,9 hPa 0,0 l/m 0 min 0 min 0,0 UV-I 0 W/m 18,0 km/h (3 Bft)
23.12.2013 20:12 10,6 C 8,9 C 79 % 1003,0 hPa 0,0 l/m 0 min 0 min 0,0 UV-I 0 W/m 23,2 km/h (4 Bft)
23.12.2013 20:14 10,6 C 8,9 C 79 % 1002,8 hPa 0,0 l/m 0 min 0 min 0,0 UV-I 0 W/m 15,4 km/h (3 Bft)
23.12.2013 20:16 10,6 C 8,9 C 79 % 1002,8 hPa 0,0 l/m 0 min 0 min 0,0 UV-I 0 W/m 28,3 km/h (4 Bft)
23.12.2013 20:18 10,6 C 8,9 C 79 % 1002,8 hPa 0,0 l/m 0 min 0 min 0,0 UV-I 0 W/m 23,2 km/h (4 Bft)
23.12.2013 20:20 10,6 C 8,9 C 79 % 1002,9 hPa 0,0 l/m 0 min 0 min 0,0 UV-I 0 W/m 25,7 km/h (4 Bft)
23.12.2013 20:22 10,6 C 8,9 C 79 % 1002,8 hPa 0,0 l/m 0 min 0 min 0,0 UV-I 0 W/m 23,2 km/h (4 Bft)
23.12.2013 20:24 10,7 C 8,9 C 79 % 1002,9 hPa 0,0 l/m 0 min 0 min 0,0 UV-I 0 W/m 23,2 km/h (4 Bft)
23.12.2013 20:26 10,7 C 8,9 C 79 % 1002,7 hPa 0,0 l/m 0 min 0 min 0,0 UV-I 0 W/m 15,4 km/h (3 Bft)
23.12.2013 20:28 10,7 C 8,9 C 79 % 1002,8 hPa 0,0 l/m 0 min 0 min 0,0 UV-I 0 W/m 23,2 km/h (4 Bft)
23.12.2013 20:30 10,7 C 8,9 C 79 % 1002,7 hPa 0,0 l/m 0 min 0 min 0,0 UV-I 0 W/m 28,3 km/h (4 Bft)
23.12.2013 20:32 10,7 C 8,9 C 79 % 1002,7 hPa 0,0 l/m 0 min 0 min 0,0 UV-I 0 W/m 33,5 km/h (5 Bft)
23.12.2013 20:34 10,7 C 8,9 C 79 % 1002,6 hPa 0,0 l/m 0 min 0 min 0,0 UV-I 0 W/m 15,4 km/h (3 Bft)
23.12.2013 20:37 10,8 C 8,9 C 78 % 1002,5 hPa 0,0 l/m 0 min 0 min 0,0 UV-I 0 W/m 25,7 km/h (4 Bft)
23.12.2013 20:38 10,8 C 8,9 C 78 % 1002,5 hPa 0,0 l/m 0 min 0 min 0,0 UV-I 0 W/m 10,3 km/h (2 Bft)
23.12.2013 20:40 10,8 C 8,9 C 78 % 1002,4 hPa 0,0 l/m 0 min 0 min 0,0 UV-I 0 W/m 25,7 km/h (4 Bft)
23.12.2013 20:42 10,8 C 8,9 C 78 % 1002,4 hPa 0,0 l/m 0 min 0 min 0,0 UV-I 0 W/m 25,7 km/h (4 Bft)
23.12.2013 20:45 10,8 C 8,9 C 78 % 1002,4 hPa 0,0 l/m 0 min 0 min 0,0 UV-I 0 W/m 28,3 km/h (4 Bft)
23.12.2013 20:46 10,8 C 8,9 C 78 % 1002,4 hPa 0,0 l/m 0 min 0 min 0,0 UV-I 0 W/m 18,0 km/h (3 Bft)
23.12.2013 20:48 10,9 C 9,4 C 78 % 1002,3 hPa 0,0 l/m 0 min 0 min 0,0 UV-I 0 W/m 25,7 km/h (4 Bft)
23.12.2013 20:50 10,9 C 9,4 C 78 % 1002,3 hPa 0,0 l/m 0 min 0 min 0,0 UV-I 0 W/m 20,6 km/h (4 Bft)
23.12.2013 20:52 10,9 C 9,4 C 77 % 1002,3 hPa 0,0 l/m 0 min 0 min 0,0 UV-I 0 W/m 18,0 km/h (3 Bft)
23.12.2013 20:54 10,9 C 9,4 C 77 % 1002,1 hPa 0,0 l/m 0 min 0 min 0,0 UV-I 0 W/m 18,0 km/h (3 Bft)
23.12.2013 20:56 10,9 C 9,4 C 77 % 1002,2 hPa 0,0 l/m 0 min 0 min 0,0 UV-I 0 W/m 28,3 km/h (4 Bft)
23.12.2013 20:58 11,0 C 9,4 C 77 % 1002,1 hPa 0,0 l/m 0 min 0 min 0,0 UV-I 0 W/m 18,0 km/h (3 Bft)
23.12.2013 21:00 11,0 C 9,4 C 77 % 1001,9 hPa 0,0 l/m 0 min 0 min 0,0 UV-I 0 W/m 25,7 km/h (4 Bft)
23.12.2013 21:02 11,0 C 9,4 C 77 % 1001,9 hPa 0,0 l/m 0 min 0 min 0,0 UV-I 0 W/m 15,4 km/h (3 Bft)
23.12.2013 21:04 11,1 C 9,4 C 77 % 1002,0 hPa 0,0 l/m 0 min 0 min 0,0 UV-I 0 W/m 46,3 km/h (6 Bft)
23.12.2013 21:06 11,1 C 8,9 C 76 % 1001,8 hPa 0,0 l/m 0 min 0 min 0,0 UV-I 0 W/m 18,0 km/h (3 Bft)
23.12.2013 21:08 11,1 C 8,9 C 76 % 1001,8 hPa 0,0 l/m 0 min 0 min 0,0 UV-I 0 W/m 20,6 km/h (4 Bft)
23.12.2013 21:10 11,1 C 8,9 C 76 % 1001,8 hPa 0,0 l/m 0 min 0 min 0,0 UV-I 0 W/m 30,9 km/h (5 Bft)
23.12.2013 21:12 11,1 C 9,4 C 76 % 1001,8 hPa 0,0 l/m 0 min 0 min 0,0 UV-I 0 W/m 25,7 km/h (4 Bft)
23.12.2013 21:14 11,1 C 9,4 C 76 % 1001,8 hPa 0,0 l/m 0 min 0 min 0,0 UV-I 0 W/m 33,5 km/h (5 Bft)
23.12.2013 21:16 11,1 C 9,4 C 76 % 1001,7 hPa 0,0 l/m 0 min 0 min 0,0 UV-I 0 W/m 20,6 km/h (4 Bft)
23.12.2013 21:18 11,1 C 9,4 C 75 % 1001,7 hPa 0,0 l/m 0 min 0 min 0,0 UV-I 0 W/m 30,9 km/h (5 Bft)
23.12.2013 21:20 11,2 C 9,4 C 75 % 1001,7 hPa 0,0 l/m 0 min 0 min 0,0 UV-I 0 W/m 23,2 km/h (4 Bft)
23.12.2013 21:22 11,2 C 9,4 C 75 % 1001,6 hPa 0,0 l/m 0 min 0 min 0,0 UV-I 0 W/m 36,0 km/h (5 Bft)
23.12.2013 21:24 11,2 C 9,4 C 75 % 1001,7 hPa 0,0 l/m 0 min 0 min 0,0 UV-I 0 W/m 28,3 km/h (4 Bft)
23.12.2013 21:26 11,3 C 9,4 C 75 % 1001,7 hPa 0,0 l/m 0 min 0 min 0,0 UV-I 0 W/m 33,5 km/h (5 Bft)
23.12.2013 21:28 11,3 C 9,4 C 74 % 1001,6 hPa 0,0 l/m 0 min 0 min 0,0 UV-I 0 W/m 25,7 km/h (4 Bft)
23.12.2013 21:30 11,3 C 9,4 C 74 % 1001,6 hPa 0,0 l/m 0 min 0 min 0,0 UV-I 0 W/m 18,0 km/h (3 Bft)
23.12.2013 21:32 11,3 C 9,4 C 74 % 1001,6 hPa 0,0 l/m 0 min 0 min 0,0 UV-I 0 W/m 30,9 km/h (5 Bft)
23.12.2013 21:34 11,3 C 9,4 C 74 % 1001,5 hPa 0,0 l/m 0 min 0 min 0,0 UV-I 0 W/m 30,9 km/h (5 Bft)
23.12.2013 21:36 11,4 C 9,4 C 74 % 1001,5 hPa 0,0 l/m 0 min 0 min 0,0 UV-I 0 W/m 38,6 km/h (5 Bft)
23.12.2013 21:38 11,4 C 9,4 C 73 % 1001,5 hPa 0,0 l/m 0 min 0 min 0,0 UV-I 0 W/m 23,2 km/h (4 Bft)
23.12.2013 21:40 11,4 C 9,4 C 73 % 1001,4 hPa 0,0 l/m 0 min 0 min 0,0 UV-I 0 W/m 18,0 km/h (3 Bft)
23.12.2013 21:42 11,4 C 9,4 C 73 % 1001,3 hPa 0,0 l/m 0 min 0 min 0,0 UV-I 0 W/m 28,3 km/h (4 Bft)
23.12.2013 21:44 11,4 C 9,4 C 73 % 1001,5 hPa 0,0 l/m 0 min 0 min 0,0 UV-I 0 W/m 51,5 km/h (7 Bft)
23.12.2013 21:46 11,4 C 9,4 C 73 % 1001,4 hPa 0,0 l/m 0 min 0 min 0,0 UV-I 0 W/m 28,3 km/h (4 Bft)
23.12.2013 21:48 11,4 C 9,4 C 73 % 1001,4 hPa 0,0 l/m 0 min 0 min 0,0 UV-I 0 W/m 25,7 km/h (4 Bft)
23.12.2013 21:50 11,5 C 9,4 C 73 % 1001,1 hPa 0,0 l/m 0 min 0 min 0,0 UV-I 0 W/m 28,3 km/h (4 Bft)
23.12.2013 21:52 11,5 C 9,4 C 73 % 1001,3 hPa 0,0 l/m 0 min 0 min 0,0 UV-I 0 W/m 30,9 km/h (5 Bft)
23.12.2013 21:54 11,5 C 9,4 C 72 % 1001,2 hPa 0,0 l/m 0 min 0 min 0,0 UV-I 0 W/m 41,2 km/h (6 Bft)
23.12.2013 21:56 11,5 C 9,4 C 72 % 1001,3 hPa 0,0 l/m 0 min 0 min 0,0 UV-I 0 W/m 46,3 km/h (6 Bft)
23.12.2013 21:58 11,6 C 9,4 C 72 % 1001,2 hPa 0,0 l/m 0 min 0 min 0,0 UV-I 0 W/m 23,2 km/h (4 Bft)
23.12.2013 22:00 11,6 C 9,4 C 72 % 1001,2 hPa 0,0 l/m 0 min 0 min 0,0 UV-I 0 W/m 30,9 km/h (5 Bft)
23.12.2013 22:02 11,6 C 9,4 C 72 % 1001,2 hPa 0,0 l/m 0 min 0 min 0,0 UV-I 0 W/m 36,0 km/h (5 Bft)
23.12.2013 22:04 11,6 C 9,4 C 72 % 1001,2 hPa 0,0 l/m 0 min 0 min 0,0 UV-I 0 W/m 38,6 km/h (5 Bft)
23.12.2013 22:06 11,6 C 9,4 C 72 % 1001,0 hPa 0,0 l/m 0 min 0 min 0,0 UV-I 0 W/m 25,7 km/h (4 Bft)
23.12.2013 22:08 11,6 C 9,4 C 72 % 1000,9 hPa 0,0 l/m 0 min 0 min 0,0 UV-I 0 W/m 36,0 km/h (5 Bft)
23.12.2013 22:10 11,6 C 9,4 C 72 % 1001,0 hPa 0,0 l/m 0 min 0 min 0,0 UV-I 0 W/m 30,9 km/h (5 Bft)
23.12.2013 22:12 11,6 C 9,4 C 72 % 1000,9 hPa 0,0 l/m 0 min 0 min 0,0 UV-I 0 W/m 25,7 km/h (4 Bft)
23.12.2013 22:14 11,6 C 9,4 C 71 % 1000,9 hPa 0,0 l/m 0 min 0 min 0,0 UV-I 0 W/m 28,3 km/h (4 Bft)
23.12.2013 22:16 11,6 C 9,4 C 71 % 1000,9 hPa 0,0 l/m 0 min 0 min 0,0 UV-I 0 W/m 23,2 km/h (4 Bft)
23.12.2013 22:18 11,6 C 9,4 C 71 % 1000,7 hPa 0,0 l/m 0 min 0 min 0,0 UV-I 0 W/m 25,7 km/h (4 Bft)
23.12.2013 22:20 11,6 C 9,4 C 71 % 1000,7 hPa 0,0 l/m 0 min 0 min 0,0 UV-I 0 W/m 36,0 km/h (5 Bft)
23.12.2013 22:22 11,6 C 9,4 C 71 % 1000,7 hPa 0,0 l/m 0 min 0 min 0,0 UV-I 0 W/m 25,7 km/h (4 Bft)
23.12.2013 22:24 11,6 C 9,4 C 71 % 1000,7 hPa 0,0 l/m 0 min 0 min 0,0 UV-I 0 W/m 30,9 km/h (5 Bft)
23.12.2013 22:26 11,6 C 9,4 C 71 % 1000,7 hPa 0,0 l/m 0 min 0 min 0,0 UV-I 0 W/m 30,9 km/h (5 Bft)
23.12.2013 22:28 11,6 C 9,4 C 71 % 1000,7 hPa 0,0 l/m 0 min 0 min 0,0 UV-I 0 W/m 33,5 km/h (5 Bft)
23.12.2013 22:30 11,6 C 9,4 C 71 % 1000,7 hPa 0,0 l/m 0 min 0 min 0,0 UV-I 0 W/m 36,0 km/h (5 Bft)
23.12.2013 22:32 11,6 C 9,4 C 71 % 1000,6 hPa 0,0 l/m 0 min 0 min 0,0 UV-I 0 W/m 30,9 km/h (5 Bft)
23.12.2013 22:34 11,6 C 9,4 C 71 % 1000,6 hPa 0,0 l/m 0 min 0 min 0,0 UV-I 0 W/m 28,3 km/h (4 Bft)
23.12.2013 22:36 11,6 C 9,4 C 71 % 1000,4 hPa 0,0 l/m 0 min 0 min 0,0 UV-I 0 W/m 33,5 km/h (5 Bft)
23.12.2013 22:38 11,6 C 9,4 C 71 % 1000,3 hPa 0,0 l/m 0 min 0 min 0,0 UV-I 0 W/m 23,2 km/h (4 Bft)
23.12.2013 22:40 11,7 C 9,4 C 71 % 1000,7 hPa 0,0 l/m 0 min 0 min 0,0 UV-I 0 W/m 41,2 km/h (6 Bft)
23.12.2013 22:42 11,6 C 9,4 C 71 % 1000,4 hPa 0,0 l/m 0 min 0 min 0,0 UV-I 0 W/m 20,6 km/h (4 Bft)
23.12.2013 22:44 11,6 C 9,4 C 71 % 1000,3 hPa 0,0 l/m 0 min 0 min 0,0 UV-I 0 W/m 38,6 km/h (5 Bft)
23.12.2013 22:46 11,6 C 9,4 C 71 % 1000,1 hPa 0,0 l/m 0 min 0 min 0,0 UV-I 0 W/m 30,9 km/h (5 Bft)
23.12.2013 22:48 11,6 C 9,4 C 71 % 1000,2 hPa 0,0 l/m 0 min 0 min 0,0 UV-I 0 W/m 30,9 km/h (5 Bft)
23.12.2013 22:50 11,6 C 9,4 C 71 % 999,9 hPa 0,0 l/m 0 min 0 min 0,0 UV-I 0 W/m 41,2 km/h (6 Bft)
23.12.2013 22:52 11,6 C 9,4 C 71 % 1000,0 hPa 0,0 l/m 0 min 0 min 0,0 UV-I 0 W/m 30,9 km/h (5 Bft)
23.12.2013 22:54 11,6 C 9,4 C 71 % 999,9 hPa 0,0 l/m 0 min 0 min 0,0 UV-I 0 W/m 33,5 km/h (5 Bft)
23.12.2013 22:56 11,6 C 9,4 C 71 % 1000,0 hPa 0,0 l/m 0 min 0 min 0,0 UV-I 0 W/m 33,5 km/h (5 Bft)
23.12.2013 22:58 11,6 C 9,4 C 71 % 999,9 hPa 0,0 l/m 0 min 0 min 0,0 UV-I 0 W/m 36,0 km/h (5 Bft)
23.12.2013 23:00 11,6 C 9,4 C 71 % 1000,0 hPa 0,0 l/m 0 min 0 min 0,0 UV-I 0 W/m 46,3 km/h (6 Bft)
23.12.2013 23:02 11,6 C 9,4 C 71 % 999,8 hPa 0,0 l/m 0 min 0 min 0,0 UV-I 0 W/m 33,5 km/h (5 Bft)
23.12.2013 23:04 11,6 C 9,4 C 71 % 999,9 hPa 0,0 l/m 0 min 0 min 0,0 UV-I 0 W/m 33,5 km/h (5 Bft)
23.12.2013 23:06 11,6 C 9,4 C 70 % 1000,2 hPa 0,0 l/m 0 min 0 min 0,0 UV-I 0 W/m 30,9 km/h (5 Bft)
23.12.2013 23:08 11,6 C 9,4 C 70 % 1000,0 hPa 0,0 l/m 0 min 0 min 0,0 UV-I 0 W/m 23,2 km/h (4 Bft)
23.12.2013 23:10 11,6 C 9,4 C 70 % 999,7 hPa 0,0 l/m 0 min 0 min 0,0 UV-I 0 W/m 30,9 km/h (5 Bft)
23.12.2013 23:12 11,7 C 9,4 C 70 % 999,6 hPa 0,0 l/m 0 min 0 min 0,0 UV-I 0 W/m 23,2 km/h (4 Bft)
23.12.2013 23:14 11,7 C 9,4 C 70 % 999,6 hPa 0,0 l/m 0 min 0 min 0,0 UV-I 0 W/m 18,0 km/h (3 Bft)
23.12.2013 23:16 11,7 C 9,4 C 70 % 999,6 hPa 0,0 l/m 0 min 0 min 0,0 UV-I 0 W/m 36,0 km/h (5 Bft)
23.12.2013 23:18 11,7 C 10,0 C 70 % 999,7 hPa 0,0 l/m 0 min 0 min 0,0 UV-I 0 W/m 46,3 km/h (6 Bft)
23.12.2013 23:20 11,7 C 10,0 C 70 % 999,6 hPa 0,0 l/m 0 min 0 min 0,0 UV-I 0 W/m 41,2 km/h (6 Bft)
23.12.2013 23:22 11,7 C 10,0 C 70 % 999,6 hPa 0,0 l/m 0 min 0 min 0,0 UV-I 0 W/m 28,3 km/h (4 Bft)
23.12.2013 23:24 11,7 C 10,0 C 70 % 999,5 hPa 0,0 l/m 0 min 0 min 0,0 UV-I 0 W/m 28,3 km/h (4 Bft)
23.12.2013 23:26 11,7 C 10,0 C 70 % 999,5 hPa 0,0 l/m 0 min 0 min 0,0 UV-I 0 W/m 15,4 km/h (3 Bft)
23.12.2013 23:28 11,7 C 10,0 C 70 % 999,5 hPa 0,0 l/m 0 min 0 min 0,0 UV-I 0 W/m 23,2 km/h (4 Bft)
23.12.2013 23:30 11,7 C 9,4 C 70 % 999,5 hPa 0,0 l/m 0 min 0 min 0,0 UV-I 0 W/m 23,2 km/h (4 Bft)
23.12.2013 23:32 11,7 C 9,4 C 70 % 999,6 hPa 0,0 l/m 0 min 0 min 0,0 UV-I 0 W/m 36,0 km/h (5 Bft)
23.12.2013 23:34 11,7 C 9,4 C 70 % 999,4 hPa 0,0 l/m 0 min 0 min 0,0 UV-I 0 W/m 36,0 km/h (5 Bft)
23.12.2013 23:36 11,7 C 9,4 C 70 % 999,4 hPa 0,0 l/m 0 min 0 min 0,0 UV-I 0 W/m 25,7 km/h (4 Bft)
23.12.2013 23:38 11,7 C 9,4 C 70 % 999,6 hPa 0,0 l/m 0 min 0 min 0,0 UV-I 0 W/m 33,5 km/h (5 Bft)
23.12.2013 23:40 11,7 C 9,4 C 70 % 999,3 hPa 0,0 l/m 0 min 0 min 0,0 UV-I 0 W/m 20,6 km/h (4 Bft)
23.12.2013 23:42 11,7 C 10,0 C 70 % 999,3 hPa 0,0 l/m 0 min 0 min 0,0 UV-I 0 W/m 33,5 km/h (5 Bft)
23.12.2013 23:44 11,7 C 10,0 C 70 % 999,4 hPa 0,0 l/m 0 min 0 min 0,0 UV-I 0 W/m 28,3 km/h (4 Bft)
23.12.2013 23:46 11,7 C 9,4 C 70 % 999,2 hPa 0,0 l/m 0 min 0 min 0,0 UV-I 0 W/m 25,7 km/h (4 Bft)
23.12.2013 23:48 11,7 C 9,4 C 70 % 999,3 hPa 0,0 l/m 0 min 0 min 0,0 UV-I 0 W/m 33,5 km/h (5 Bft)
23.12.2013 23:50 11,7 C 9,4 C 70 % 999,3 hPa 0,0 l/m 0 min 0 min 0,0 UV-I 0 W/m 38,6 km/h (5 Bft)
23.12.2013 23:52 11,7 C 9,4 C 70 % 999,2 hPa 0,0 l/m 0 min 0 min 0,0 UV-I 0 W/m 33,5 km/h (5 Bft)
23.12.2013 23:54 11,7 C 9,4 C 70 % 999,3 hPa 0,0 l/m 0 min 0 min 0,0 UV-I 0 W/m 28,3 km/h (4 Bft)
23.12.2013 23:56 11,7 C 9,4 C 71 % 999,3 hPa 0,0 l/m 0 min 0 min 0,0 UV-I 0 W/m 25,7 km/h (4 Bft)
23.12.2013 23:58 11,7 C 9,4 C 71 % 999,5 hPa 0,0 l/m 0 min 0 min 0,0 UV-I 0 W/m 20,6 km/h (4 Bft)
_ Min-Zeit 09:32 07:50 23:06 23:46 - - - - - 02:44
Minimum _ 4,8 C 3,3 C 70 % 999,2 hPa - - - - - 0,0 km/h (0 Bft)
_ Max-Zeit 22:38 23:18 10:08 04:58 00:00 10:16 02:10 00:00 13:10 21:44
Maximum _ 11,7 C 10,0 C 94 % 1016,6 hPa 0,0 l/m 2 min 2 min 0,0 UV-I 292 W/m 51,5 km/h
S-SO (7 Bft)
Durchschnitt _ 8,4 C 6,7 C 83 % 1010,8 hPa #0,0 l/m #2:18 h #10 min. 0,0 UV-I 94 W/m 17,4 km/h (3 Bft)
© 2013 W. Hausmann